Time,TemperatureF,DewpointF,PressureIn,WindDirection,WindDirectionDegrees,WindSpeedMPH,WindSpeedGustMPH,Humidity,HourlyPrecipIn,Conditions,Clouds,dailyrainin,SoftwareType,DateUTC
2013-03-05 00:00:00,32.5,15.0,30.02,NNW,347,4.0,5.0,48,0.00,,---,0.00,VWS V14.01,2013-03-05 05:00:00,
2013-03-05 00:05:00,32.5,15.0,30.02,WSW,244,2.0,2.0,48,0.00,,---,0.00,VWS V14.01,2013-03-05 05:05:00,
2013-03-05 00:10:00,32.7,15.2,30.02,West,262,10.0,12.0,48,0.00,,---,0.00,VWS V14.01,2013-03-05 05:10:00,
2013-03-05 00:15:00,32.7,15.2,30.02,West,267,4.0,4.0,48,0.00,,---,0.00,VWS V14.01,2013-03-05 05:15:00,
2013-03-05 00:20:00,32.8,15.3,30.02,West,271,0.0,4.0,48,0.00,,---,0.00,VWS V14.01,2013-03-05 05:20:00,
2013-03-05 00:25:00,32.8,15.3,30.02,WSW,238,7.0,7.0,48,0.00,,---,0.00,VWS V14.01,2013-03-05 05:25:00,
2013-03-05 00:30:00,32.7,15.2,30.02,West,274,1.0,1.0,48,0.00,,---,0.00,VWS V14.01,2013-03-05 05:30:00,
2013-03-05 00:35:00,32.7,15.2,30.02,WSW,243,0.0,0.0,48,0.00,,---,0.00,VWS V14.01,2013-03-05 05:35:00,
2013-03-05 00:40:00,32.7,14.7,30.02,SW,227,3.0,4.0,47,0.00,,---,0.00,VWS V14.01,2013-03-05 05:40:00,
2013-03-05 00:45:00,32.7,15.2,30.02,West,273,4.0,4.0,48,0.00,,---,0.00,VWS V14.01,2013-03-05 05:45:00,
2013-03-05 00:46:00,32.7,15.2,30.02,West,274,2.0,2.0,48,0.00,,---,0.00,VWS V14.01,2013-03-05 05:46:00,
2013-03-05 00:50:00,32.7,14.7,30.02,West,274,0.0,1.0,47,0.00,,---,0.00,VWS V14.01,2013-03-05 05:50:00,
2013-03-05 00:51:00,32.7,14.7,30.02,West,274,0.0,0.0,47,0.00,,---,0.00,VWS V14.01,2013-03-05 05:51:00,
2013-03-05 00:55:00,32.7,14.7,30.02,West,274,0.0,0.0,47,0.00,,---,0.00,VWS V14.01,2013-03-05 05:55:00,
2013-03-05 00:56:00,32.7,14.7,30.02,West,274,0.0,0.0,47,0.00,,---,0.00,VWS V14.01,2013-03-05 05:56:00,
2013-03-05 01:00:00,32.7,14.7,30.02,West,269,6.0,12.0,47,0.00,,---,0.00,VWS V14.01,2013-03-05 06:00:00,
2013-03-05 01:01:00,32.7,14.7,30.02,WSW,254,2.0,3.0,47,0.00,,---,0.00,VWS V14.01,2013-03-05 06:01:00,
2013-03-05 01:05:00,32.5,14.5,30.02,WSW,255,1.0,3.0,47,0.00,,---,0.00,VWS V14.01,2013-03-05 06:05:00,
2013-03-05 01:06:00,32.5,14.5,30.02,WSW,255,2.0,2.0,47,0.00,,---,0.00,VWS V14.01,2013-03-05 06:06:00,
2013-03-05 01:10:00,32.5,14.5,30.02,WSW,255,0.0,0.0,47,0.00,,---,0.00,VWS V14.01,2013-03-05 06:10:00,
2013-03-05 01:11:00,32.5,14.5,30.02,WSW,255,0.0,0.0,47,0.00,,---,0.00,VWS V14.01,2013-03-05 06:11:00,
2013-03-05 01:15:00,32.4,14.4,30.02,WSW,255,0.0,0.0,47,0.00,,---,0.00,VWS V14.01,2013-03-05 06:15:00,
2013-03-05 01:16:00,32.4,14.4,30.02,WSW,255,0.0,0.0,47,0.00,,---,0.00,VWS V14.01,2013-03-05 06:16:00,
2013-03-05 01:20:00,32.2,14.2,30.01,SW,221,0.0,1.0,47,0.00,,---,0.00,VWS V14.01,2013-03-05 06:20:00,
2013-03-05 01:21:00,32.2,14.2,30.01,West,280,5.0,5.0,47,0.00,,---,0.00,VWS V14.01,2013-03-05 06:21:00,
2013-03-05 01:25:00,32.2,14.7,30.01,West,272,2.0,3.0,48,0.00,,---,0.00,VWS V14.01,2013-03-05 06:25:00,
2013-03-05 01:26:00,32.2,14.7,30.01,West,272,0.0,1.0,48,0.00,,---,0.00,VWS V14.01,2013-03-05 06:26:00,
2013-03-05 01:30:00,32.1,14.6,30.01,West,271,0.0,0.0,48,0.00,,---,0.00,VWS V14.01,2013-03-05 06:30:00,
2013-03-05 01:31:00,32.1,14.6,30.01,West,271,0.0,0.0,48,0.00,,---,0.00,VWS V14.01,2013-03-05 06:31:00,
2013-03-05 01:36:00,31.9,14.4,30.01,West,271,2.0,2.0,48,0.00,,---,0.00,VWS V14.01,2013-03-05 06:36:00,
2013-03-05 01:41:00,31.8,14.4,30.01,West,271,1.0,1.0,48,0.00,,---,0.00,VWS V14.01,2013-03-05 06:41:00,
2013-03-05 01:46:00,31.8,14.4,30.01,SW,221,0.0,0.0,48,0.00,,---,0.00,VWS V14.01,2013-03-05 06:46:00,
2013-03-05 01:51:00,31.6,14.2,30.01,SW,221,0.0,0.0,48,0.00,,---,0.00,VWS V14.01,2013-03-05 06:51:00,
2013-03-05 01:56:00,31.5,14.1,30.01,SW,221,2.0,3.0,48,0.00,,---,0.00,VWS V14.01,2013-03-05 06:56:00,
2013-03-05 02:01:00,31.5,14.1,30.01,West,279,3.0,3.0,48,0.00,,---,0.00,VWS V14.01,2013-03-05 07:01:00,
2013-03-05 02:06:00,31.5,14.1,30.02,West,274,2.0,3.0,48,0.00,,---,0.00,VWS V14.01,2013-03-05 07:06:00,
2013-03-05 02:11:00,31.5,14.6,30.02,WSW,238,2.0,2.0,49,0.00,,---,0.00,VWS V14.01,2013-03-05 07:11:00,
2013-03-05 02:16:00,31.5,14.6,30.02,WSW,240,3.0,3.0,49,0.00,,---,0.00,VWS V14.01,2013-03-05 07:16:00,
2013-03-05 02:17:00,31.5,14.6,30.03,WSW,240,1.0,1.0,49,0.00,,---,0.00,VWS V14.01,2013-03-05 07:17:00,
2013-03-05 02:21:00,31.5,14.6,30.03,West,261,0.0,2.0,49,0.00,,---,0.00,VWS V14.01,2013-03-05 07:21:00,
2013-03-05 02:22:00,31.5,14.6,30.03,West,261,3.0,3.0,49,0.00,,---,0.00,VWS V14.01,2013-03-05 07:22:00,
2013-03-05 02:26:00,31.5,14.6,30.03,West,261,0.0,2.0,49,0.00,,---,0.00,VWS V14.01,2013-03-05 07:26:00,
2013-03-05 02:27:00,31.5,15.0,30.03,West,261,0.0,2.0,50,0.00,,---,0.00,VWS V14.01,2013-03-05 07:27:00,
2013-03-05 02:31:00,31.6,14.6,30.03,WSW,248,4.0,6.0,49,0.00,,---,0.00,VWS V14.01,2013-03-05 07:31:00,
2013-03-05 02:32:00,31.6,14.6,30.03,WSW,248,2.0,3.0,49,0.00,,---,0.00,VWS V14.01,2013-03-05 07:32:00,
2013-03-05 02:36:00,31.6,14.6,30.03,WSW,249,0.0,1.0,49,0.00,,---,0.00,VWS V14.01,2013-03-05 07:36:00,
2013-03-05 02:37:00,31.6,14.6,30.03,West,263,3.0,8.0,49,0.00,,---,0.00,VWS V14.01,2013-03-05 07:37:00,
2013-03-05 02:41:00,31.8,14.8,30.03,SW,236,0.0,3.0,49,0.00,,---,0.00,VWS V14.01,2013-03-05 07:41:00,
2013-03-05 02:42:00,31.8,14.8,30.03,SW,236,2.0,3.0,49,0.00,,---,0.00,VWS V14.01,2013-03-05 07:42:00,
2013-03-05 02:46:00,31.9,14.4,30.03,WSW,252,3.0,6.0,48,0.00,,---,0.00,VWS V14.01,2013-03-05 07:46:00,
2013-03-05 02:47:00,31.9,14.4,30.03,WNW,286,7.0,7.0,48,0.00,,---,0.00,VWS V14.01,2013-03-05 07:47:00,
2013-03-05 02:51:00,31.9,14.4,30.03,WNW,290,2.0,3.0,48,0.00,,---,0.00,VWS V14.01,2013-03-05 07:51:00,
2013-03-05 02:52:00,31.9,14.4,30.03,WSW,255,7.0,7.0,48,0.00,,---,0.00,VWS V14.01,2013-03-05 07:52:00,
2013-03-05 02:56:00,31.9,14.4,30.03,West,261,0.0,0.0,48,0.00,,---,0.00,VWS V14.01,2013-03-05 07:56:00,
2013-03-05 02:57:00,31.9,14.4,30.03,WNW,303,0.0,5.0,48,0.00,,---,0.00,VWS V14.01,2013-03-05 07:57:00,
2013-03-05 03:01:00,31.9,14.4,30.03,WNW,284,0.0,3.0,48,0.00,,---,0.00,VWS V14.01,2013-03-05 08:01:00,
2013-03-05 03:02:00,31.9,14.4,30.03,West,273,0.0,3.0,48,0.00,,---,0.00,VWS V14.01,2013-03-05 08:02:00,
2013-03-05 03:06:00,31.9,14.4,30.03,West,277,10.0,10.0,48,0.00,,---,0.00,VWS V14.01,2013-03-05 08:06:00,
2013-03-05 03:07:00,31.9,14.4,30.03,West,264,4.0,6.0,48,0.00,,---,0.00,VWS V14.01,2013-03-05 08:07:00,
2013-03-05 03:11:00,31.9,14.4,30.03,WSW,248,0.0,2.0,48,0.00,,---,0.00,VWS V14.01,2013-03-05 08:11:00,
2013-03-05 03:12:00,31.9,14.4,30.03,WSW,248,0.0,2.0,48,0.00,,---,0.00,VWS V14.01,2013-03-05 08:12:00,
2013-03-05 03:16:00,32.1,14.6,30.03,WSW,250,5.0,9.0,48,0.00,,---,0.00,VWS V14.01,2013-03-05 08:16:00,
2013-03-05 03:17:00,32.1,14.6,30.02,WSW,256,6.0,6.0,48,0.00,,---,0.00,VWS V14.01,2013-03-05 08:17:00,
2013-03-05 03:18:00,32.1,14.6,30.02,WSW,257,5.0,5.0,48,0.00,,---,0.00,VWS V14.01,2013-03-05 08:18:00,
2013-03-05 03:21:00,32.1,14.6,30.02,NW,305,0.0,6.0,48,0.00,,---,0.00,VWS V14.01,2013-03-05 08:21:00,
2013-03-05 03:22:00,32.1,14.6,30.02,NW,305,0.0,0.0,48,0.00,,---,0.00,VWS V14.01,2013-03-05 08:22:00,
2013-03-05 03:23:00,32.1,14.6,30.02,West,272,4.0,5.0,48,0.00,,---,0.00,VWS V14.01,2013-03-05 08:23:00,
2013-03-05 03:26:00,32.2,14.7,30.02,WNW,296,0.0,5.0,48,0.00,,---,0.00,VWS V14.01,2013-03-05 08:26:00,
2013-03-05 03:27:00,32.2,14.7,30.02,WNW,296,0.0,0.0,48,0.00,,---,0.00,VWS V14.01,2013-03-05 08:27:00,
2013-03-05 03:28:00,32.2,14.7,30.02,WSW,246,9.0,9.0,48,0.00,,---,0.00,VWS V14.01,2013-03-05 08:28:00,
2013-03-05 03:31:00,32.4,14.9,30.02,WSW,257,0.0,4.0,48,0.00,,---,0.00,VWS V14.01,2013-03-05 08:31:00,
2013-03-05 03:32:00,32.4,14.9,30.02,WSW,257,2.0,2.0,48,0.00,,---,0.00,VWS V14.01,2013-03-05 08:32:00,
2013-03-05 03:33:00,32.4,14.9,30.02,WSW,257,0.0,0.0,48,0.00,,---,0.00,VWS V14.01,2013-03-05 08:33:00,
2013-03-05 03:36:00,32.4,14.4,30.02,West,265,3.0,5.0,47,0.00,,---,0.00,VWS V14.01,2013-03-05 08:36:00,
2013-03-05 03:37:00,32.4,14.4,30.02,West,265,2.0,3.0,47,0.00,,---,0.00,VWS V14.01,2013-03-05 08:37:00,
2013-03-05 03:38:00,32.4,14.9,30.02,West,266,3.0,3.0,48,0.00,,---,0.00,VWS V14.01,2013-03-05 08:38:00,
2013-03-05 03:41:00,32.4,14.4,30.02,WNW,291,6.0,7.0,47,0.00,,---,0.00,VWS V14.01,2013-03-05 08:41:00,
2013-03-05 03:42:00,32.4,14.4,30.02,WNW,291,2.0,3.0,47,0.00,,---,0.00,VWS V14.01,2013-03-05 08:42:00,
2013-03-05 03:43:00,32.5,14.5,30.02,WNW,290,0.0,1.0,47,0.00,,---,0.00,VWS V14.01,2013-03-05 08:43:00,
2013-03-05 03:46:00,32.5,14.5,30.02,WSW,257,1.0,5.0,47,0.00,,---,0.00,VWS V14.01,2013-03-05 08:46:00,
2013-03-05 03:47:00,32.5,14.5,30.02,WSW,257,0.0,1.0,47,0.00,,---,0.00,VWS V14.01,2013-03-05 08:47:00,
2013-03-05 03:48:00,32.5,14.5,30.02,West,278,0.0,2.0,47,0.00,,---,0.00,VWS V14.01,2013-03-05 08:48:00,
2013-03-05 03:51:00,32.5,14.5,30.02,West,281,0.0,3.0,47,0.00,,---,0.00,VWS V14.01,2013-03-05 08:51:00,
2013-03-05 03:52:00,32.5,14.5,30.02,West,281,0.0,0.0,47,0.00,,---,0.00,VWS V14.01,2013-03-05 08:52:00,
2013-03-05 03:53:00,32.5,14.5,30.02,West,281,3.0,3.0,47,0.00,,---,0.00,VWS V14.01,2013-03-05 08:53:00,
2013-03-05 03:56:00,32.5,14.5,30.02,WNW,289,0.0,7.0,47,0.00,,---,0.00,VWS V14.01,2013-03-05 08:56:00,
2013-03-05 03:57:00,32.5,14.5,30.02,WNW,289,0.0,0.0,47,0.00,,---,0.00,VWS V14.01,2013-03-05 08:57:00,
2013-03-05 03:58:00,32.5,14.5,30.02,NW,309,0.0,0.0,47,0.00,,---,0.00,VWS V14.01,2013-03-05 08:58:00,
2013-03-05 04:01:00,32.5,14.5,30.02,West,280,1.0,7.0,47,0.00,,---,0.00,VWS V14.01,2013-03-05 09:01:00,
2013-03-05 04:02:00,32.5,14.5,30.02,West,280,2.0,2.0,47,0.00,,---,0.00,VWS V14.01,2013-03-05 09:02:00,
2013-03-05 04:03:00,32.5,14.5,30.02,West,280,2.0,3.0,47,0.00,,---,0.00,VWS V14.01,2013-03-05 09:03:00,
2013-03-05 04:06:00,32.5,14.5,30.02,West,259,2.0,4.0,47,0.00,,---,0.00,VWS V14.01,2013-03-05 09:06:00,
2013-03-05 04:07:00,32.5,14.5,30.02,WNW,284,5.0,5.0,47,0.00,,---,0.00,VWS V14.01,2013-03-05 09:07:00,
2013-03-05 04:08:00,32.5,14.5,30.02,West,280,0.0,0.0,47,0.00,,---,0.00,VWS V14.01,2013-03-05 09:08:00,
2013-03-05 04:11:00,32.5,14.5,30.02,WNW,285,3.0,4.0,47,0.00,,---,0.00,VWS V14.01,2013-03-05 09:11:00,
2013-03-05 04:12:00,32.5,14.5,30.02,WNW,285,4.0,4.0,47,0.00,,---,0.00,VWS V14.01,2013-03-05 09:12:00,
2013-03-05 04:13:00,32.5,14.5,30.02,WNW,286,3.0,4.0,47,0.00,,---,0.00,VWS V14.01,2013-03-05 09:13:00,
2013-03-05 04:16:00,32.5,14.5,30.02,WNW,288,0.0,0.0,47,0.00,,---,0.00,VWS V14.01,2013-03-05 09:16:00,
2013-03-05 04:17:00,32.5,14.5,30.02,WNW,288,0.0,0.0,47,0.00,,---,0.00,VWS V14.01,2013-03-05 09:17:00,
2013-03-05 04:18:00,32.5,14.5,30.02,WNW,288,1.0,3.0,47,0.00,,---,0.00,VWS V14.01,2013-03-05 09:18:00,
2013-03-05 04:22:00,32.5,14.5,30.02,WNW,288,1.0,1.0,47,0.00,,---,0.00,VWS V14.01,2013-03-05 09:22:00,
2013-03-05 04:23:00,32.4,14.4,30.02,WNW,288,0.0,1.0,47,0.00,,---,0.00,VWS V14.01,2013-03-05 09:23:00,
2013-03-05 04:27:00,32.4,14.4,30.02,West,266,3.0,6.0,47,0.00,,---,0.00,VWS V14.01,2013-03-05 09:27:00,
2013-03-05 04:28:00,32.4,14.4,30.02,West,266,2.0,2.0,47,0.00,,---,0.00,VWS V14.01,2013-03-05 09:28:00,
2013-03-05 04:32:00,32.4,14.4,30.02,NW,314,1.0,1.0,47,0.00,,---,0.00,VWS V14.01,2013-03-05 09:32:00,
2013-03-05 04:33:00,32.4,14.9,30.02,West,261,2.0,3.0,48,0.00,,---,0.00,VWS V14.01,2013-03-05 09:33:00,
2013-03-05 04:37:00,32.2,14.7,30.02,West,261,1.0,1.0,48,0.00,,---,0.00,VWS V14.01,2013-03-05 09:37:00,
2013-03-05 04:38:00,32.2,14.7,30.02,West,261,2.0,3.0,48,0.00,,---,0.00,VWS V14.01,2013-03-05 09:38:00,
2013-03-05 04:42:00,32.2,14.7,30.02,West,261,1.0,1.0,48,0.00,,---,0.00,VWS V14.01,2013-03-05 09:42:00,
2013-03-05 04:43:00,32.2,14.7,30.02,West,261,3.0,3.0,48,0.00,,---,0.00,VWS V14.01,2013-03-05 09:43:00,
2013-03-05 04:47:00,32.2,14.7,30.02,West,268,3.0,3.0,48,0.00,,---,0.00,VWS V14.01,2013-03-05 09:47:00,
2013-03-05 04:48:00,32.2,15.2,30.02,West,268,0.0,0.0,49,0.00,,---,0.00,VWS V14.01,2013-03-05 09:48:00,
2013-03-05 04:52:00,32.2,15.7,30.02,West,268,2.0,3.0,50,0.00,,---,0.00,VWS V14.01,2013-03-05 09:52:00,
2013-03-05 04:53:00,32.2,15.7,30.02,NW,308,5.0,5.0,50,0.00,,---,0.00,VWS V14.01,2013-03-05 09:53:00,
2013-03-05 04:57:00,32.1,15.6,30.02,NW,323,0.0,0.0,50,0.00,,---,0.00,VWS V14.01,2013-03-05 09:57:00,
2013-03-05 04:58:00,32.1,15.6,30.02,NW,323,3.0,3.0,50,0.00,,---,0.00,VWS V14.01,2013-03-05 09:58:00,
2013-03-05 05:02:00,32.1,15.6,30.02,NW,324,0.0,1.0,50,0.00,,---,0.00,VWS V14.01,2013-03-05 10:02:00,
2013-03-05 05:03:00,32.1,15.6,30.02,NW,324,0.0,1.0,50,0.00,,---,0.00,VWS V14.01,2013-03-05 10:03:00,
2013-03-05 05:07:00,31.9,15.4,30.02,NW,324,1.0,1.0,50,0.00,,---,0.00,VWS V14.01,2013-03-05 10:07:00,
2013-03-05 05:08:00,31.9,15.4,30.02,NW,324,0.0,0.0,50,0.00,,---,0.00,VWS V14.01,2013-03-05 10:08:00,
2013-03-05 05:12:00,31.9,15.8,30.02,NNW,341,4.0,4.0,51,0.00,,---,0.00,VWS V14.01,2013-03-05 10:12:00,
2013-03-05 05:13:00,31.8,15.3,30.02,North,10,1.0,3.0,50,0.00,,---,0.00,VWS V14.01,2013-03-05 10:13:00,
2013-03-05 05:17:00,31.8,16.2,30.02,NNE,12,2.0,3.0,52,0.00,,---,0.00,VWS V14.01,2013-03-05 10:17:00,
2013-03-05 05:18:00,31.8,15.8,30.02,NNE,12,0.0,2.0,51,0.00,,---,0.00,VWS V14.01,2013-03-05 10:18:00,
2013-03-05 05:19:00,31.6,15.6,30.02,NNE,12,0.0,1.0,51,0.00,,---,0.00,VWS V14.01,2013-03-05 10:19:00,
2013-03-05 05:22:00,31.6,16.0,30.02,NW,310,2.0,4.0,52,0.00,,---,0.00,VWS V14.01,2013-03-05 10:22:00,
2013-03-05 05:23:00,31.6,16.0,30.02,NW,310,0.0,0.0,52,0.00,,---,0.00,VWS V14.01,2013-03-05 10:23:00,
2013-03-05 05:24:00,31.6,16.0,30.02,NW,310,3.0,3.0,52,0.00,,---,0.00,VWS V14.01,2013-03-05 10:24:00,
2013-03-05 05:27:00,31.5,15.9,30.02,NW,315,0.0,4.0,52,0.00,,---,0.00,VWS V14.01,2013-03-05 10:27:00,
2013-03-05 05:28:00,31.5,15.9,30.02,NW,315,1.0,3.0,52,0.00,,---,0.00,VWS V14.01,2013-03-05 10:28:00,
2013-03-05 05:29:00,31.5,15.9,30.02,NW,315,1.0,4.0,52,0.00,,---,0.00,VWS V14.01,2013-03-05 10:29:00,
2013-03-05 05:32:00,31.3,15.7,30.02,WNW,294,1.0,6.0,52,0.00,,---,0.00,VWS V14.01,2013-03-05 10:32:00,
2013-03-05 05:33:00,31.3,15.7,30.02,WNW,294,0.0,2.0,52,0.00,,---,0.00,VWS V14.01,2013-03-05 10:33:00,
2013-03-05 05:34:00,31.3,15.7,30.02,WNW,288,4.0,6.0,52,0.00,,---,0.00,VWS V14.01,2013-03-05 10:34:00,
2013-03-05 05:37:00,31.3,15.7,30.02,NNW,344,0.0,4.0,52,0.00,,---,0.00,VWS V14.01,2013-03-05 10:37:00,
2013-03-05 05:38:00,31.3,15.7,30.02,NNW,343,3.0,4.0,52,0.00,,---,0.00,VWS V14.01,2013-03-05 10:38:00,
2013-03-05 05:39:00,31.3,15.7,30.02,NNW,329,0.0,3.0,52,0.00,,---,0.00,VWS V14.01,2013-03-05 10:39:00,
2013-03-05 05:42:00,31.2,15.6,30.02,WNW,302,6.0,6.0,52,0.00,,---,0.00,VWS V14.01,2013-03-05 10:42:00,
2013-03-05 05:43:00,31.2,15.6,30.02,North,355,2.0,5.0,52,0.00,,---,0.00,VWS V14.01,2013-03-05 10:43:00,
2013-03-05 05:44:00,31.2,15.6,30.02,NNW,341,1.0,4.0,52,0.00,,---,0.00,VWS V14.01,2013-03-05 10:44:00,
2013-03-05 05:47:00,31.2,15.6,30.02,NNW,342,2.0,4.0,52,0.00,,---,0.00,VWS V14.01,2013-03-05 10:47:00,
2013-03-05 05:48:00,31.2,15.6,30.02,North,355,3.0,5.0,52,0.00,,---,0.00,VWS V14.01,2013-03-05 10:48:00,
2013-03-05 05:49:00,31.2,15.6,30.02,NNW,342,0.0,4.0,52,0.00,,---,0.00,VWS V14.01,2013-03-05 10:49:00,
2013-03-05 05:52:00,31.2,15.6,30.02,NNW,342,3.0,5.0,52,0.00,,---,0.00,VWS V14.01,2013-03-05 10:52:00,
2013-03-05 05:53:00,31.2,15.6,30.02,NW,312,3.0,3.0,52,0.00,,---,0.00,VWS V14.01,2013-03-05 10:53:00,
2013-03-05 05:54:00,31.2,15.6,30.02,NNW,327,1.0,1.0,52,0.00,,---,0.00,VWS V14.01,2013-03-05 10:54:00,
2013-03-05 05:57:00,31.2,15.6,30.02,NW,306,2.0,4.0,52,0.00,,---,0.00,VWS V14.01,2013-03-05 10:57:00,
2013-03-05 05:58:00,31.2,15.6,30.02,NW,306,2.0,2.0,52,0.00,,---,0.00,VWS V14.01,2013-03-05 10:58:00,
2013-03-05 05:59:00,31.2,15.6,30.02,NW,306,0.0,0.0,52,0.00,,---,0.00,VWS V14.01,2013-03-05 10:59:00,
2013-03-05 06:03:00,31.2,15.6,30.02,NW,325,1.0,2.0,52,0.00,,---,0.00,VWS V14.01,2013-03-05 11:03:00,
2013-03-05 06:04:00,31.2,15.6,30.02,NNW,343,2.0,3.0,52,0.00,,---,0.00,VWS V14.01,2013-03-05 11:04:00,
2013-03-05 06:08:00,31.2,15.6,30.02,NNW,343,0.0,0.0,52,0.00,,---,0.00,VWS V14.01,2013-03-05 11:08:00,
2013-03-05 06:09:00,31.2,15.6,30.02,NNW,343,1.0,1.0,52,0.00,,---,0.00,VWS V14.01,2013-03-05 11:09:00,
2013-03-05 06:13:00,31.2,15.6,30.02,WNW,291,0.0,0.0,52,0.00,,---,0.00,VWS V14.01,2013-03-05 11:13:00,
2013-03-05 06:14:00,31.2,15.6,30.02,WNW,291,3.0,3.0,52,0.00,,---,0.00,VWS V14.01,2013-03-05 11:14:00,
2013-03-05 06:18:00,31.2,15.6,30.03,WNW,287,3.0,3.0,52,0.00,,---,0.00,VWS V14.01,2013-03-05 11:18:00,
2013-03-05 06:19:00,31.2,15.6,30.03,WNW,287,1.0,1.0,52,0.00,,---,0.00,VWS V14.01,2013-03-05 11:19:00,
2013-03-05 06:23:00,31.2,15.6,30.03,WNW,287,0.0,0.0,52,0.00,,---,0.00,VWS V14.01,2013-03-05 11:23:00,
2013-03-05 06:24:00,31.2,15.6,30.03,WNW,287,0.0,0.0,52,0.00,,---,0.00,VWS V14.01,2013-03-05 11:24:00,
2013-03-05 06:28:00,31.2,15.6,30.03,WNW,287,0.0,0.0,52,0.00,,---,0.00,VWS V14.01,2013-03-05 11:28:00,
2013-03-05 06:29:00,31.2,15.6,30.03,WNW,287,0.0,0.0,52,0.00,,---,0.00,VWS V14.01,2013-03-05 11:29:00,
2013-03-05 06:33:00,31.2,15.6,30.04,WNW,287,0.0,0.0,52,0.00,,---,0.00,VWS V14.01,2013-03-05 11:33:00,
2013-03-05 06:34:00,31.2,15.6,30.04,WNW,287,0.0,1.0,52,0.00,,---,0.00,VWS V14.01,2013-03-05 11:34:00,
2013-03-05 06:38:00,31.2,15.6,30.04,WNW,287,0.0,0.0,52,0.00,,---,0.00,VWS V14.01,2013-03-05 11:38:00,
2013-03-05 06:39:00,31.2,15.6,30.04,WNW,287,0.0,0.0,52,0.00,,---,0.00,VWS V14.01,2013-03-05 11:39:00,
2013-03-05 06:43:00,31.2,15.6,30.04,WNW,287,0.0,0.0,52,0.00,,---,0.00,VWS V14.01,2013-03-05 11:43:00,
2013-03-05 06:44:00,31.2,15.6,30.04,WNW,287,0.0,0.0,52,0.00,,---,0.00,VWS V14.01,2013-03-05 11:44:00,
2013-03-05 06:48:00,31.0,15.4,30.04,WNW,287,0.0,0.0,52,0.00,,---,0.00,VWS V14.01,2013-03-05 11:48:00,
2013-03-05 06:49:00,31.0,15.4,30.04,WNW,287,0.0,0.0,52,0.00,,---,0.00,VWS V14.01,2013-03-05 11:49:00,
2013-03-05 06:53:00,31.0,15.4,30.04,WNW,287,0.0,0.0,52,0.00,,---,0.00,VWS V14.01,2013-03-05 11:53:00,
2013-03-05 06:54:00,31.0,15.9,30.04,WNW,287,0.0,0.0,53,0.00,,---,0.00,VWS V14.01,2013-03-05 11:54:00,
2013-03-05 06:58:00,31.0,16.3,30.04,WNW,287,0.0,0.0,54,0.00,,---,0.00,VWS V14.01,2013-03-05 11:58:00,
2013-03-05 06:59:00,31.0,16.3,30.04,WNW,287,0.0,0.0,54,0.00,,---,0.00,VWS V14.01,2013-03-05 11:59:00,
2013-03-05 07:03:00,31.0,16.7,30.04,WNW,287,0.0,2.0,55,0.00,,---,0.00,VWS V14.01,2013-03-05 12:03:00,
2013-03-05 07:04:00,31.0,16.3,30.04,WNW,287,0.0,1.0,54,0.00,,---,0.00,VWS V14.01,2013-03-05 12:04:00,
2013-03-05 07:08:00,31.0,16.7,30.04,WNW,290,0.0,2.0,55,0.00,,---,0.00,VWS V14.01,2013-03-05 12:08:00,
2013-03-05 07:09:00,31.0,16.7,30.04,WNW,290,2.0,2.0,55,0.00,,---,0.00,VWS V14.01,2013-03-05 12:09:00,
2013-03-05 07:13:00,31.0,16.7,30.04,NE,34,2.0,4.0,55,0.00,,---,0.00,VWS V14.01,2013-03-05 12:13:00,
2013-03-05 07:14:00,31.0,16.7,30.04,NE,34,1.0,1.0,55,0.00,,---,0.00,VWS V14.01,2013-03-05 12:14:00,
2013-03-05 07:18:00,31.0,16.7,30.04,NE,34,0.0,0.0,55,0.00,,---,0.00,VWS V14.01,2013-03-05 12:18:00,
2013-03-05 07:19:00,31.0,16.7,30.04,NE,34,0.0,0.0,55,0.00,,---,0.00,VWS V14.01,2013-03-05 12:19:00,
2013-03-05 07:23:00,31.0,16.3,30.04,NE,34,0.0,0.0,54,0.00,,---,0.00,VWS V14.01,2013-03-05 12:23:00,
2013-03-05 07:24:00,31.0,16.3,30.04,NE,34,0.0,0.0,54,0.00,,---,0.00,VWS V14.01,2013-03-05 12:24:00,
2013-03-05 07:25:00,31.2,16.5,30.04,NE,34,0.0,0.0,54,0.00,,---,0.00,VWS V14.01,2013-03-05 12:25:00,
2013-03-05 07:29:00,31.2,16.1,30.04,NE,34,0.0,0.0,53,0.00,,---,0.00,VWS V14.01,2013-03-05 12:29:00,
2013-03-05 07:30:00,31.2,16.1,30.04,NE,34,0.0,0.0,53,0.00,,---,0.00,VWS V14.01,2013-03-05 12:30:00,
2013-03-05 07:34:00,31.2,15.6,30.04,NE,34,0.0,0.0,52,0.00,,---,0.00,VWS V14.01,2013-03-05 12:34:00,
2013-03-05 07:35:00,31.2,15.6,30.04,NE,34,0.0,0.0,52,0.00,,---,0.00,VWS V14.01,2013-03-05 12:35:00,
2013-03-05 07:39:00,31.3,15.7,30.04,NE,34,0.0,1.0,52,0.00,,---,0.00,VWS V14.01,2013-03-05 12:39:00,
2013-03-05 07:40:00,31.3,15.7,30.04,NE,34,0.0,0.0,52,0.00,,---,0.00,VWS V14.01,2013-03-05 12:40:00,
2013-03-05 07:44:00,31.5,15.9,30.04,NE,34,0.0,0.0,52,0.00,,---,0.00,VWS V14.01,2013-03-05 12:44:00,
2013-03-05 07:45:00,31.5,15.9,30.04,NE,34,0.0,0.0,52,0.00,,---,0.00,VWS V14.01,2013-03-05 12:45:00,
2013-03-05 07:49:00,31.6,15.6,30.04,NE,34,0.0,1.0,51,0.00,,---,0.00,VWS V14.01,2013-03-05 12:49:00,
2013-03-05 07:50:00,31.8,15.8,30.04,NE,34,0.0,1.0,51,0.00,,---,0.00,VWS V14.01,2013-03-05 12:50:00,
2013-03-05 07:53:00,31.9,15.8,30.04,NE,34,0.0,1.0,51,0.00,,---,0.00,VWS V14.01,2013-03-05 12:53:00,
2013-03-05 07:54:00,31.9,15.8,30.04,NE,34,0.0,2.0,51,0.00,,---,0.00,VWS V14.01,2013-03-05 12:54:00,
2013-03-05 07:55:00,31.9,15.8,30.04,NE,34,0.0,0.0,51,0.00,,---,0.00,VWS V14.01,2013-03-05 12:55:00,
2013-03-05 07:59:00,32.1,16.0,30.04,NNE,29,0.0,1.0,51,0.00,,---,0.00,VWS V14.01,2013-03-05 12:59:00,
2013-03-05 08:00:00,32.1,16.0,30.04,NNE,29,1.0,1.0,51,0.00,,---,0.00,VWS V14.01,2013-03-05 13:00:00,
2013-03-05 08:04:00,32.4,16.8,30.04,NNE,29,0.0,2.0,52,0.00,,---,0.00,VWS V14.01,2013-03-05 13:04:00,
2013-03-05 08:05:00,32.4,16.8,30.04,NNW,337,0.0,3.0,52,0.00,,---,0.00,VWS V14.01,2013-03-05 13:05:00,
2013-03-05 08:09:00,32.8,16.7,30.04,NNW,336,0.0,3.0,51,0.00,,---,0.00,VWS V14.01,2013-03-05 13:09:00,
2013-03-05 08:10:00,32.9,16.8,30.04,NNW,336,0.0,0.0,51,0.00,,---,0.00,VWS V14.01,2013-03-05 13:10:00,
2013-03-05 08:14:00,33.4,16.8,30.04,NW,318,0.0,0.0,50,0.00,,---,0.00,VWS V14.01,2013-03-05 13:14:00,
2013-03-05 08:15:00,33.5,16.9,30.04,NW,318,1.0,1.0,50,0.00,,---,0.00,VWS V14.01,2013-03-05 13:15:00,
2013-03-05 08:19:00,34.1,16.5,30.04,NW,318,0.0,0.0,48,0.00,,---,0.00,VWS V14.01,2013-03-05 13:19:00,
2013-03-05 08:20:00,34.3,17.1,30.04,NW,318,1.0,1.0,49,0.00,,---,0.00,VWS V14.01,2013-03-05 13:20:00,
2013-03-05 08:24:00,35.0,16.8,30.04,NW,319,3.0,3.0,47,0.00,,---,0.00,VWS V14.01,2013-03-05 13:24:00,
2013-03-05 08:25:00,35.2,16.5,30.04,NW,320,0.0,3.0,46,0.00,,---,0.00,VWS V14.01,2013-03-05 13:25:00,
2013-03-05 08:29:00,35.6,16.9,30.04,NW,321,1.0,3.0,46,0.00,,---,0.00,VWS V14.01,2013-03-05 13:29:00,
2013-03-05 08:30:00,35.6,16.4,30.04,NW,321,2.0,4.0,45,0.00,,---,0.00,VWS V14.01,2013-03-05 13:30:00,
2013-03-05 08:34:00,35.9,16.6,30.03,NW,321,0.0,2.0,45,0.00,,---,0.00,VWS V14.01,2013-03-05 13:34:00,
2013-03-05 08:35:00,35.9,16.6,30.03,NW,321,2.0,2.0,45,0.00,,---,0.00,VWS V14.01,2013-03-05 13:35:00,
2013-03-05 08:39:00,36.2,16.4,30.03,NW,321,0.0,2.0,44,0.00,,---,0.00,VWS V14.01,2013-03-05 13:39:00,
2013-03-05 08:40:00,36.2,16.4,30.03,NW,321,0.0,0.0,44,0.00,,---,0.00,VWS V14.01,2013-03-05 13:40:00,
2013-03-05 08:44:00,36.5,16.7,30.03,NW,321,0.0,2.0,44,0.00,,---,0.00,VWS V14.01,2013-03-05 13:44:00,
2013-03-05 08:45:00,36.5,16.1,30.03,NW,321,0.0,2.0,43,0.00,,---,0.00,VWS V14.01,2013-03-05 13:45:00,
2013-03-05 08:49:00,36.8,16.4,30.03,NW,321,3.0,3.0,43,0.00,,---,0.00,VWS V14.01,2013-03-05 13:49:00,
2013-03-05 08:50:00,36.9,17.0,30.03,NW,321,1.0,1.0,44,0.00,,---,0.00,VWS V14.01,2013-03-05 13:50:00,
2013-03-05 08:51:00,37.0,17.1,30.03,NW,321,0.0,0.0,44,0.00,,---,0.00,VWS V14.01,2013-03-05 13:51:00,
2013-03-05 08:54:00,37.5,17.0,30.03,NW,318,0.0,0.0,43,0.00,,---,0.00,VWS V14.01,2013-03-05 13:54:00,
2013-03-05 08:55:00,37.5,17.0,30.03,NW,319,0.0,1.0,43,0.00,,---,0.00,VWS V14.01,2013-03-05 13:55:00,
2013-03-05 08:56:00,37.6,17.1,30.03,NW,318,0.0,0.0,43,0.00,,---,0.00,VWS V14.01,2013-03-05 13:56:00,
2013-03-05 08:59:00,37.8,16.8,30.03,NW,325,2.0,2.0,42,0.00,,---,0.00,VWS V14.01,2013-03-05 13:59:00,
2013-03-05 09:00:00,37.9,16.9,30.03,NW,325,0.0,4.0,42,0.00,,---,0.00,VWS V14.01,2013-03-05 14:00:00,
2013-03-05 09:01:00,37.9,16.9,30.03,NW,325,1.0,1.0,42,0.00,,---,0.00,VWS V14.01,2013-03-05 14:01:00,
2013-03-05 09:04:00,38.3,16.7,30.03,NW,310,1.0,4.0,41,0.00,,---,0.00,VWS V14.01,2013-03-05 14:04:00,
2013-03-05 09:05:00,38.5,16.9,30.03,NW,312,2.0,3.0,41,0.00,,---,0.00,VWS V14.01,2013-03-05 14:05:00,
2013-03-05 09:06:00,38.5,16.9,30.03,NW,312,0.0,3.0,41,0.00,,---,0.00,VWS V14.01,2013-03-05 14:06:00,
2013-03-05 09:09:00,38.6,17.0,30.03,North,355,0.0,1.0,41,0.00,,---,0.00,VWS V14.01,2013-03-05 14:09:00,
2013-03-05 09:10:00,38.8,17.1,30.03,North,355,1.0,1.0,41,0.00,,---,0.00,VWS V14.01,2013-03-05 14:10:00,
2013-03-05 09:11:00,38.8,17.1,30.03,North,355,0.0,1.0,41,0.00,,---,0.00,VWS V14.01,2013-03-05 14:11:00,
2013-03-05 09:14:00,38.8,16.0,30.03,North,351,0.0,1.0,39,0.00,,---,0.00,VWS V14.01,2013-03-05 14:14:00,
2013-03-05 09:15:00,38.9,16.6,30.03,NNW,348,0.0,3.0,40,0.00,,---,0.00,VWS V14.01,2013-03-05 14:15:00,
2013-03-05 09:16:00,38.9,16.6,30.03,NNW,348,0.0,1.0,40,0.00,,---,0.00,VWS V14.01,2013-03-05 14:16:00,
2013-03-05 09:19:00,39.1,16.8,30.02,NNW,342,2.0,3.0,40,0.00,,---,0.00,VWS V14.01,2013-03-05 14:19:00,
2013-03-05 09:20:00,39.1,16.8,30.02,NNW,342,1.0,2.0,40,0.00,,---,0.00,VWS V14.01,2013-03-05 14:20:00,
2013-03-05 09:21:00,39.1,16.8,30.02,NNW,342,0.0,0.0,40,0.00,,---,0.00,VWS V14.01,2013-03-05 14:21:00,
2013-03-05 09:24:00,39.3,16.4,30.02,NNW,342,1.0,4.0,39,0.00,,---,0.00,VWS V14.01,2013-03-05 14:24:00,
2013-03-05 09:25:00,39.3,16.4,30.02,NNW,342,1.0,2.0,39,0.00,,---,0.00,VWS V14.01,2013-03-05 14:25:00,
2013-03-05 09:26:00,39.3,16.4,30.02,NNW,342,0.0,1.0,39,0.00,,---,0.00,VWS V14.01,2013-03-05 14:26:00,
2013-03-05 09:29:00,40.1,17.1,30.02,WNW,289,0.0,1.0,39,0.00,,---,0.00,VWS V14.01,2013-03-05 14:29:00,
2013-03-05 09:30:00,40.1,17.1,30.02,WNW,289,0.0,1.0,39,0.00,,---,0.00,VWS V14.01,2013-03-05 14:30:00,
2013-03-05 09:31:00,40.2,17.2,30.02,WNW,289,0.0,0.0,39,0.00,,---,0.00,VWS V14.01,2013-03-05 14:31:00,
2013-03-05 09:34:00,40.6,18.2,30.02,WNW,289,1.0,3.0,40,0.00,,---,0.00,VWS V14.01,2013-03-05 14:34:00,
2013-03-05 09:35:00,40.6,18.2,30.02,WNW,290,1.0,1.0,40,0.00,,---,0.00,VWS V14.01,2013-03-05 14:35:00,
2013-03-05 09:36:00,40.8,17.2,30.02,NE,54,5.0,5.0,38,0.00,,---,0.00,VWS V14.01,2013-03-05 14:36:00,
2013-03-05 09:39:00,40.8,16.6,30.02,ENE,68,5.0,5.0,37,0.00,,---,0.00,VWS V14.01,2013-03-05 14:39:00,
2013-03-05 09:40:00,40.8,16.6,30.02,NE,47,2.0,2.0,37,0.00,,---,0.00,VWS V14.01,2013-03-05 14:40:00,
2013-03-05 09:41:00,40.8,16.6,30.02,NE,53,3.0,5.0,37,0.00,,---,0.00,VWS V14.01,2013-03-05 14:41:00,
2013-03-05 09:44:00,40.8,17.2,30.02,NE,56,2.0,4.0,38,0.00,,---,0.00,VWS V14.01,2013-03-05 14:44:00,
2013-03-05 09:45:00,40.8,17.2,30.02,NE,56,2.0,2.0,38,0.00,,---,0.00,VWS V14.01,2013-03-05 14:45:00,
2013-03-05 09:46:00,40.8,17.2,30.02,ENE,57,4.0,4.0,38,0.00,,---,0.00,VWS V14.01,2013-03-05 14:46:00,
2013-03-05 09:50:00,40.8,16.6,30.01,ENE,59,0.0,0.0,37,0.00,,---,0.00,VWS V14.01,2013-03-05 14:50:00,
2013-03-05 09:51:00,40.9,17.3,30.01,ENE,59,3.0,3.0,38,0.00,,---,0.00,VWS V14.01,2013-03-05 14:51:00,
2013-03-05 09:55:00,40.9,16.6,30.01,North,10,1.0,1.0,37,0.00,,---,0.00,VWS V14.01,2013-03-05 14:55:00,
2013-03-05 09:56:00,40.9,16.6,30.01,North,10,2.0,4.0,37,0.00,,---,0.00,VWS V14.01,2013-03-05 14:56:00,
2013-03-05 10:00:00,40.9,16.6,30.01,NNE,18,2.0,2.0,37,0.00,,---,0.00,VWS V14.01,2013-03-05 15:00:00,
2013-03-05 10:01:00,40.9,16.6,30.01,NNE,31,2.0,3.0,37,0.00,,---,0.00,VWS V14.01,2013-03-05 15:01:00,
2013-03-05 10:05:00,40.9,15.4,30.00,NE,42,0.0,1.0,35,0.00,,---,0.00,VWS V14.01,2013-03-05 15:05:00,
2013-03-05 10:06:00,40.9,15.4,30.00,NW,313,2.0,2.0,35,0.00,,---,0.00,VWS V14.01,2013-03-05 15:06:00,
2013-03-05 10:10:00,41.3,17.6,30.00,NE,43,2.0,3.0,38,0.00,,---,0.00,VWS V14.01,2013-03-05 15:10:00,
2013-03-05 10:11:00,41.6,18.5,30.00,NNW,348,5.0,5.0,39,0.00,,---,0.00,VWS V14.01,2013-03-05 15:11:00,
2013-03-05 10:15:00,41.9,16.9,30.00,ENE,63,4.0,6.0,36,0.00,,---,0.00,VWS V14.01,2013-03-05 15:15:00,
2013-03-05 10:16:00,41.9,16.9,30.00,ENE,67,3.0,4.0,36,0.00,,---,0.00,VWS V14.01,2013-03-05 15:16:00,
2013-03-05 10:20:00,41.9,16.3,30.00,East,82,4.0,4.0,35,0.00,,---,0.00,VWS V14.01,2013-03-05 15:20:00,
2013-03-05 10:21:00,42.1,16.4,30.00,East,82,2.0,2.0,35,0.00,,---,0.00,VWS V14.01,2013-03-05 15:21:00,
2013-03-05 10:25:00,42.2,17.2,30.00,East,80,3.0,3.0,36,0.00,,---,0.00,VWS V14.01,2013-03-05 15:25:00,
2013-03-05 10:26:00,42.3,17.3,30.00,East,80,0.0,1.0,36,0.00,,---,0.00,VWS V14.01,2013-03-05 15:26:00,
2013-03-05 10:30:00,42.2,16.5,30.00,ENE,60,2.0,3.0,35,0.00,,---,0.00,VWS V14.01,2013-03-05 15:30:00,
2013-03-05 10:31:00,42.2,16.5,30.00,ENE,69,3.0,5.0,35,0.00,,---,0.00,VWS V14.01,2013-03-05 15:31:00,
2013-03-05 10:35:00,42.3,17.9,29.98,SE,144,5.0,5.0,37,0.00,,---,0.00,VWS V14.01,2013-03-05 15:35:00,
2013-03-05 10:36:00,42.5,16.8,29.98,ESE,119,2.0,4.0,35,0.00,,---,0.00,VWS V14.01,2013-03-05 15:36:00,
2013-03-05 10:40:00,43.1,17.3,29.98,ESE,119,2.0,2.0,35,0.00,,---,0.00,VWS V14.01,2013-03-05 15:40:00,
2013-03-05 10:41:00,43.1,17.3,29.98,ESE,119,0.0,2.0,35,0.00,,---,0.00,VWS V14.01,2013-03-05 15:41:00,
2013-03-05 10:45:00,43.3,16.1,29.98,ESE,119,0.0,1.0,33,0.00,,---,0.00,VWS V14.01,2013-03-05 15:45:00,
2013-03-05 10:46:00,43.5,17.0,29.98,ESE,119,1.0,4.0,34,0.00,,---,0.00,VWS V14.01,2013-03-05 15:46:00,
2013-03-05 10:50:00,43.8,15.9,29.98,South,175,0.0,2.0,32,0.00,,---,0.00,VWS V14.01,2013-03-05 15:50:00,
2013-03-05 10:51:00,43.9,16.7,29.98,South,175,0.0,1.0,33,0.00,,---,0.00,VWS V14.01,2013-03-05 15:51:00,
2013-03-05 10:52:00,43.9,16.7,29.98,South,175,1.0,1.0,33,0.00,,---,0.00,VWS V14.01,2013-03-05 15:52:00,
2013-03-05 10:55:00,44.3,16.3,29.98,ESE,123,0.0,3.0,32,0.00,,---,0.00,VWS V14.01,2013-03-05 15:55:00,
2013-03-05 10:56:00,44.5,15.8,29.98,SSE,149,1.0,3.0,31,0.00,,---,0.00,VWS V14.01,2013-03-05 15:56:00,
2013-03-05 10:57:00,44.5,15.8,29.98,SSE,149,3.0,3.0,31,0.00,,---,0.00,VWS V14.01,2013-03-05 15:57:00,
2013-03-05 11:00:00,45.1,17.0,29.98,South,190,0.0,3.0,32,0.00,,---,0.00,VWS V14.01,2013-03-05 16:00:00,
2013-03-05 11:01:00,45.1,17.0,29.98,South,190,1.0,1.0,32,0.00,,---,0.00,VWS V14.01,2013-03-05 16:01:00,
2013-03-05 11:02:00,45.1,16.3,29.98,South,190,0.0,0.0,31,0.00,,---,0.00,VWS V14.01,2013-03-05 16:02:00,
2013-03-05 11:05:00,45.4,15.8,29.99,South,186,0.0,0.0,30,0.00,,---,0.00,VWS V14.01,2013-03-05 16:05:00,
2013-03-05 11:06:00,45.4,15.8,29.99,South,186,0.0,0.0,30,0.00,,---,0.00,VWS V14.01,2013-03-05 16:06:00,
2013-03-05 11:07:00,45.5,15.9,29.99,WNW,299,0.0,2.0,30,0.00,,---,0.00,VWS V14.01,2013-03-05 16:07:00,
2013-03-05 11:10:00,45.7,16.1,29.99,SE,136,2.0,4.0,30,0.00,,---,0.00,VWS V14.01,2013-03-05 16:10:00,
2013-03-05 11:11:00,45.8,16.1,29.99,East,100,2.0,4.0,30,0.00,,---,0.00,VWS V14.01,2013-03-05 16:11:00,
2013-03-05 11:12:00,45.8,16.1,29.99,East,100,0.0,4.0,30,0.00,,---,0.00,VWS V14.01,2013-03-05 16:12:00,
2013-03-05 11:15:00,46.2,15.7,29.99,SW,215,0.0,5.0,29,0.00,,---,0.00,VWS V14.01,2013-03-05 16:15:00,
2013-03-05 11:16:00,46.2,16.5,29.99,SW,216,0.0,1.0,30,0.00,,---,0.00,VWS V14.01,2013-03-05 16:16:00,
2013-03-05 11:17:00,46.5,17.5,29.99,WSW,250,1.0,5.0,31,0.00,,---,0.00,VWS V14.01,2013-03-05 16:17:00,
2013-03-05 11:21:00,47.3,16.7,29.97,NNW,334,0.0,0.0,29,0.00,,---,0.00,VWS V14.01,2013-03-05 16:21:00,
2013-03-05 11:26:00,47.4,15.9,29.97,East,81,3.0,4.0,28,0.00,,---,0.00,VWS V14.01,2013-03-05 16:26:00,
2013-03-05 11:27:00,47.3,15.9,29.97,East,96,4.0,5.0,28,0.00,,---,0.00,VWS V14.01,2013-03-05 16:27:00,
2013-03-05 11:31:00,47.0,15.6,29.97,ENE,66,3.0,4.0,28,0.00,,---,0.00,VWS V14.01,2013-03-05 16:31:00,
2013-03-05 11:32:00,46.8,15.4,29.97,ENE,66,2.0,4.0,28,0.00,,---,0.00,VWS V14.01,2013-03-05 16:32:00,
2013-03-05 11:36:00,46.5,15.2,29.97,ESE,107,3.0,4.0,28,0.00,,---,0.00,VWS V14.01,2013-03-05 16:36:00,
2013-03-05 11:37:00,46.4,15.1,29.97,East,96,0.0,3.0,28,0.00,,---,0.00,VWS V14.01,2013-03-05 16:37:00,
2013-03-05 11:41:00,46.2,15.7,29.97,East,96,1.0,1.0,29,0.00,,---,0.00,VWS V14.01,2013-03-05 16:41:00,
2013-03-05 11:42:00,46.4,15.9,29.97,East,98,0.0,0.0,29,0.00,,---,0.00,VWS V14.01,2013-03-05 16:42:00,
2013-03-05 11:46:00,46.4,15.9,29.97,ENE,60,1.0,3.0,29,0.00,,---,0.00,VWS V14.01,2013-03-05 16:46:00,
2013-03-05 11:47:00,46.4,15.9,29.96,ENE,60,0.0,0.0,29,0.00,,---,0.00,VWS V14.01,2013-03-05 16:47:00,
2013-03-05 11:51:00,46.5,15.2,29.96,NE,54,2.0,5.0,28,0.00,,---,0.00,VWS V14.01,2013-03-05 16:51:00,
2013-03-05 11:52:00,46.5,15.2,29.96,NE,54,1.0,2.0,28,0.00,,---,0.00,VWS V14.01,2013-03-05 16:52:00,
2013-03-05 11:56:00,46.5,16.0,29.96,NE,55,4.0,5.0,29,0.00,,---,0.00,VWS V14.01,2013-03-05 16:56:00,
2013-03-05 11:57:00,46.5,16.0,29.96,NE,48,0.0,3.0,29,0.00,,---,0.00,VWS V14.01,2013-03-05 16:57:00,
2013-03-05 12:01:00,46.5,16.0,29.96,SE,145,6.0,6.0,29,0.00,,---,0.00,VWS V14.01,2013-03-05 17:01:00,
2013-03-05 12:02:00,46.5,15.2,29.96,SE,145,4.0,4.0,28,0.00,,---,0.00,VWS V14.01,2013-03-05 17:02:00,
2013-03-05 12:06:00,46.5,15.2,29.96,ENE,69,6.0,7.0,28,0.00,,---,0.00,VWS V14.01,2013-03-05 17:06:00,
2013-03-05 12:07:00,46.5,15.2,29.96,ENE,69,3.0,3.0,28,0.00,,---,0.00,VWS V14.01,2013-03-05 17:07:00,
2013-03-05 12:11:00,46.2,14.1,29.96,ESE,113,0.0,3.0,27,0.00,,---,0.00,VWS V14.01,2013-03-05 17:11:00,
2013-03-05 12:12:00,46.2,14.1,29.96,ESE,113,3.0,4.0,27,0.00,,---,0.00,VWS V14.01,2013-03-05 17:12:00,
2013-03-05 12:16:00,46.1,14.8,29.96,ENE,57,1.0,1.0,28,0.00,,---,0.00,VWS V14.01,2013-03-05 17:16:00,
2013-03-05 12:17:00,46.1,14.8,29.95,ENE,57,4.0,4.0,28,0.00,,---,0.00,VWS V14.01,2013-03-05 17:17:00,
2013-03-05 12:21:00,46.1,14.8,29.95,ENE,61,6.0,7.0,28,0.00,,---,0.00,VWS V14.01,2013-03-05 17:21:00,
2013-03-05 12:22:00,46.1,14.8,29.95,NE,35,5.0,6.0,28,0.00,,---,0.00,VWS V14.01,2013-03-05 17:22:00,
2013-03-05 12:26:00,46.1,14.8,29.95,ENE,69,5.0,5.0,28,0.00,,---,0.00,VWS V14.01,2013-03-05 17:26:00,
2013-03-05 12:27:00,46.1,14.0,29.95,ENE,70,5.0,5.0,27,0.00,,---,0.00,VWS V14.01,2013-03-05 17:27:00,
2013-03-05 12:31:00,46.2,14.9,29.95,ENE,76,3.0,7.0,28,0.00,,---,0.00,VWS V14.01,2013-03-05 17:31:00,
2013-03-05 12:32:00,46.2,14.9,29.94,ENE,76,2.0,4.0,28,0.00,,---,0.00,VWS V14.01,2013-03-05 17:32:00,
2013-03-05 12:36:00,46.2,14.1,29.94,NE,53,0.0,3.0,27,0.00,,---,0.00,VWS V14.01,2013-03-05 17:36:00,
2013-03-05 12:37:00,46.2,14.1,29.94,NE,53,1.0,3.0,27,0.00,,---,0.00,VWS V14.01,2013-03-05 17:37:00,
2013-03-05 12:41:00,46.4,15.1,29.94,NE,46,6.0,6.0,28,0.00,,---,0.00,VWS V14.01,2013-03-05 17:41:00,
2013-03-05 12:42:00,46.4,15.1,29.94,NE,43,4.0,5.0,28,0.00,,---,0.00,VWS V14.01,2013-03-05 17:42:00,
2013-03-05 12:47:00,46.4,15.1,29.94,ENE,67,4.0,7.0,28,0.00,,---,0.00,VWS V14.01,2013-03-05 17:47:00,
2013-03-05 12:52:00,46.2,14.1,29.93,East,84,1.0,1.0,27,0.00,,---,0.00,VWS V14.01,2013-03-05 17:52:00,
2013-03-05 12:53:00,46.4,15.1,29.93,ENE,67,6.0,7.0,28,0.00,,---,0.00,VWS V14.01,2013-03-05 17:53:00,
2013-03-05 12:57:00,46.4,15.1,29.93,ENE,67,0.0,0.0,28,0.00,,---,0.00,VWS V14.01,2013-03-05 17:57:00,
2013-03-05 12:58:00,46.4,15.1,29.93,East,85,4.0,5.0,28,0.00,,---,0.00,VWS V14.01,2013-03-05 17:58:00,
2013-03-05 13:02:00,46.5,15.2,29.92,East,92,5.0,5.0,28,0.00,,---,0.00,VWS V14.01,2013-03-05 18:02:00,
2013-03-05 13:03:00,46.5,14.3,29.92,East,86,5.0,5.0,27,0.00,,---,0.00,VWS V14.01,2013-03-05 18:03:00,
2013-03-05 13:07:00,46.4,15.1,29.92,ENE,59,3.0,3.0,28,0.00,,---,0.00,VWS V14.01,2013-03-05 18:07:00,
2013-03-05 13:08:00,46.4,14.2,29.92,ENE,59,2.0,3.0,27,0.00,,---,0.00,VWS V14.01,2013-03-05 18:08:00,
2013-03-05 13:12:00,46.5,15.2,29.92,East,94,0.0,0.0,28,0.00,,---,0.00,VWS V14.01,2013-03-05 18:12:00,
2013-03-05 13:13:00,46.5,15.2,29.92,East,94,4.0,4.0,28,0.00,,---,0.00,VWS V14.01,2013-03-05 18:13:00,
2013-03-05 13:17:00,46.7,15.3,29.92,ESE,118,0.0,0.0,28,0.00,,---,0.00,VWS V14.01,2013-03-05 18:17:00,
2013-03-05 13:18:00,46.7,15.3,29.92,ESE,118,2.0,2.0,28,0.00,,---,0.00,VWS V14.01,2013-03-05 18:18:00,
2013-03-05 13:22:00,46.7,14.5,29.92,ENE,73,4.0,5.0,27,0.00,,---,0.00,VWS V14.01,2013-03-05 18:22:00,
2013-03-05 13:23:00,46.7,15.3,29.92,ENE,64,8.0,8.0,28,0.00,,---,0.00,VWS V14.01,2013-03-05 18:23:00,
2013-03-05 13:27:00,46.4,17.4,29.92,ENE,67,5.0,9.0,31,0.00,,---,0.00,VWS V14.01,2013-03-05 18:27:00,
2013-03-05 13:28:00,46.4,17.4,29.92,ENE,74,5.0,9.0,31,0.00,,---,0.00,VWS V14.01,2013-03-05 18:28:00,
2013-03-05 13:32:00,46.2,18.0,29.91,ENE,71,5.0,7.0,32,0.00,,---,0.00,VWS V14.01,2013-03-05 18:32:00,
2013-03-05 13:33:00,46.1,17.9,29.91,ENE,71,5.0,7.0,32,0.00,,---,0.00,VWS V14.01,2013-03-05 18:33:00,
2013-03-05 13:37:00,46.1,17.9,29.91,East,94,6.0,6.0,32,0.00,,---,0.00,VWS V14.01,2013-03-05 18:37:00,
2013-03-05 13:38:00,46.2,18.0,29.91,East,81,5.0,5.0,32,0.00,,---,0.00,VWS V14.01,2013-03-05 18:38:00,
2013-03-05 13:42:00,46.4,18.2,29.91,NE,55,8.0,9.0,32,0.00,,---,0.00,VWS V14.01,2013-03-05 18:42:00,
2013-03-05 13:43:00,46.4,16.7,29.91,ENE,65,5.0,5.0,30,0.00,,---,0.00,VWS V14.01,2013-03-05 18:43:00,
2013-03-05 13:47:00,46.4,18.2,29.91,East,85,6.0,9.0,32,0.00,,---,0.00,VWS V14.01,2013-03-05 18:47:00,
2013-03-05 13:48:00,46.4,18.2,29.91,ESE,121,2.0,7.0,32,0.00,,---,0.00,VWS V14.01,2013-03-05 18:48:00,
2013-03-05 13:52:00,46.4,18.2,29.91,East,80,3.0,9.0,32,0.00,,---,0.00,VWS V14.01,2013-03-05 18:52:00,
2013-03-05 13:53:00,46.4,19.6,29.91,ENE,57,10.0,13.0,34,0.00,,---,0.00,VWS V14.01,2013-03-05 18:53:00,
2013-03-05 13:57:00,46.0,17.8,29.91,ENE,68,5.0,5.0,32,0.00,,---,0.00,VWS V14.01,2013-03-05 18:57:00,
2013-03-05 13:58:00,46.0,19.2,29.91,ENE,75,1.0,5.0,34,0.00,,---,0.00,VWS V14.01,2013-03-05 18:58:00,
2013-03-05 14:02:00,46.0,18.5,29.90,East,98,4.0,10.0,33,0.00,,---,0.00,VWS V14.01,2013-03-05 19:02:00,
2013-03-05 14:03:00,46.0,18.5,29.90,ENE,77,7.0,10.0,33,0.00,,---,0.00,VWS V14.01,2013-03-05 19:03:00,
2013-03-05 14:07:00,46.0,18.5,29.90,East,79,3.0,5.0,33,0.00,,---,0.00,VWS V14.01,2013-03-05 19:07:00,
2013-03-05 14:08:00,46.0,19.2,29.90,East,80,4.0,4.0,34,0.00,,---,0.00,VWS V14.01,2013-03-05 19:08:00,
2013-03-05 14:12:00,46.0,18.5,29.90,ENE,75,3.0,8.0,33,0.00,,---,0.00,VWS V14.01,2013-03-05 19:12:00,
2013-03-05 14:13:00,46.0,19.2,29.90,East,98,4.0,5.0,34,0.00,,---,0.00,VWS V14.01,2013-03-05 19:13:00,
2013-03-05 14:17:00,46.1,18.6,29.89,NE,49,4.0,4.0,33,0.00,,---,0.00,VWS V14.01,2013-03-05 19:17:00,
2013-03-05 14:18:00,46.1,18.6,29.89,NE,53,3.0,11.0,33,0.00,,---,0.00,VWS V14.01,2013-03-05 19:18:00,
2013-03-05 14:22:00,46.0,17.8,29.89,NE,53,4.0,7.0,32,0.00,,---,0.00,VWS V14.01,2013-03-05 19:22:00,
2013-03-05 14:23:00,46.0,19.9,29.89,NE,46,8.0,10.0,35,0.00,,---,0.00,VWS V14.01,2013-03-05 19:23:00,
2013-03-05 14:24:00,46.0,18.5,29.89,NE,46,5.0,10.0,33,0.00,,---,0.00,VWS V14.01,2013-03-05 19:24:00,
2013-03-05 14:27:00,46.0,18.5,29.89,ESE,112,3.0,7.0,33,0.00,,---,0.00,VWS V14.01,2013-03-05 19:27:00,
2013-03-05 14:28:00,46.0,19.2,29.89,ENE,59,3.0,6.0,34,0.00,,---,0.00,VWS V14.01,2013-03-05 19:28:00,
2013-03-05 14:29:00,46.0,18.5,29.89,ENE,59,3.0,6.0,33,0.00,,---,0.00,VWS V14.01,2013-03-05 19:29:00,
2013-03-05 14:32:00,46.1,18.6,29.88,NE,38,3.0,5.0,33,0.00,,---,0.00,VWS V14.01,2013-03-05 19:32:00,
2013-03-05 14:33:00,46.1,18.6,29.88,ENE,76,7.0,9.0,33,0.00,,---,0.00,VWS V14.01,2013-03-05 19:33:00,
2013-03-05 14:34:00,46.1,18.6,29.88,ENE,75,6.0,7.0,33,0.00,,---,0.00,VWS V14.01,2013-03-05 19:34:00,
2013-03-05 14:37:00,46.1,18.6,29.88,East,93,9.0,12.0,33,0.00,,---,0.00,VWS V14.01,2013-03-05 19:37:00,
2013-03-05 14:38:00,46.1,17.9,29.88,East,84,5.0,10.0,32,0.00,,---,0.00,VWS V14.01,2013-03-05 19:38:00,
2013-03-05 14:39:00,46.1,17.9,29.88,East,84,5.0,10.0,32,0.00,,---,0.00,VWS V14.01,2013-03-05 19:39:00,
2013-03-05 14:43:00,46.1,17.9,29.88,East,80,3.0,3.0,32,0.00,,---,0.00,VWS V14.01,2013-03-05 19:43:00,
2013-03-05 14:44:00,46.1,17.9,29.88,East,88,0.0,0.0,32,0.00,,---,0.00,VWS V14.01,2013-03-05 19:44:00,
2013-03-05 14:48:00,46.2,18.0,29.87,ENE,76,3.0,6.0,32,0.00,,---,0.00,VWS V14.01,2013-03-05 19:48:00,
2013-03-05 14:49:00,46.2,18.0,29.87,ENE,73,4.0,4.0,32,0.00,,---,0.00,VWS V14.01,2013-03-05 19:49:00,
2013-03-05 14:53:00,46.2,18.7,29.87,East,88,11.0,12.0,33,0.00,,---,0.00,VWS V14.01,2013-03-05 19:53:00,
2013-03-05 14:54:00,46.2,18.0,29.87,East,97,9.0,9.0,32,0.00,,---,0.00,VWS V14.01,2013-03-05 19:54:00,
2013-03-05 14:58:00,46.2,17.2,29.87,ENE,71,4.0,4.0,31,0.00,,---,0.00,VWS V14.01,2013-03-05 19:58:00,
2013-03-05 14:59:00,46.1,17.9,29.87,East,91,4.0,5.0,32,0.00,,---,0.00,VWS V14.01,2013-03-05 19:59:00,
2013-03-05 15:03:00,46.1,17.2,29.86,ESE,105,2.0,4.0,31,0.00,,---,0.00,VWS V14.01,2013-03-05 20:03:00,
2013-03-05 15:04:00,46.1,17.2,29.86,ENE,71,2.0,2.0,31,0.00,,---,0.00,VWS V14.01,2013-03-05 20:04:00,
2013-03-05 15:08:00,46.1,17.2,29.86,NE,55,4.0,9.0,31,0.00,,---,0.00,VWS V14.01,2013-03-05 20:08:00,
2013-03-05 15:09:00,46.1,17.2,29.86,NE,56,0.0,1.0,31,0.00,,---,0.00,VWS V14.01,2013-03-05 20:09:00,
2013-03-05 15:13:00,46.2,17.2,29.86,ENE,71,4.0,6.0,31,0.00,,---,0.00,VWS V14.01,2013-03-05 20:13:00,
2013-03-05 15:14:00,46.2,17.2,29.86,NE,53,7.0,7.0,31,0.00,,---,0.00,VWS V14.01,2013-03-05 20:14:00,
2013-03-05 15:18:00,46.2,18.0,29.85,ENE,67,7.0,7.0,32,0.00,,---,0.00,VWS V14.01,2013-03-05 20:18:00,
2013-03-05 15:19:00,46.2,17.2,29.85,SE,125,3.0,5.0,31,0.00,,---,0.00,VWS V14.01,2013-03-05 20:19:00,
2013-03-05 15:23:00,46.4,17.4,29.85,ESE,103,0.0,5.0,31,0.00,,---,0.00,VWS V14.01,2013-03-05 20:23:00,
2013-03-05 15:24:00,46.4,17.4,29.85,East,83,3.0,4.0,31,0.00,,---,0.00,VWS V14.01,2013-03-05 20:24:00,
2013-03-05 15:28:00,46.5,17.5,29.85,East,83,1.0,5.0,31,0.00,,---,0.00,VWS V14.01,2013-03-05 20:28:00,
2013-03-05 15:29:00,46.5,17.5,29.85,ENE,69,4.0,4.0,31,0.00,,---,0.00,VWS V14.01,2013-03-05 20:29:00,
2013-03-05 15:33:00,46.5,18.2,29.86,East,81,4.0,4.0,32,0.00,,---,0.00,VWS V14.01,2013-03-05 20:33:00,
2013-03-05 15:34:00,46.5,18.2,29.86,ENE,66,3.0,5.0,32,0.00,,---,0.00,VWS V14.01,2013-03-05 20:34:00,
2013-03-05 15:38:00,46.7,17.7,29.86,ENE,69,4.0,4.0,31,0.00,,---,0.00,VWS V14.01,2013-03-05 20:38:00,
2013-03-05 15:39:00,46.7,17.7,29.86,ENE,59,6.0,10.0,31,0.00,,---,0.00,VWS V14.01,2013-03-05 20:39:00,
2013-03-05 15:43:00,46.7,17.7,29.86,ESE,111,9.0,10.0,31,0.00,,---,0.00,VWS V14.01,2013-03-05 20:43:00,
2013-03-05 15:44:00,46.7,17.7,29.86,East,87,4.0,9.0,31,0.00,,---,0.00,VWS V14.01,2013-03-05 20:44:00,
2013-03-05 15:48:00,46.7,16.9,29.86,East,96,3.0,12.0,30,0.00,,---,0.00,VWS V14.01,2013-03-05 20:48:00,
2013-03-05 15:49:00,46.5,16.8,29.86,East,99,4.0,7.0,30,0.00,,---,0.00,VWS V14.01,2013-03-05 20:49:00,
2013-03-05 15:53:00,46.4,16.7,29.86,East,98,6.0,9.0,30,0.00,,---,0.00,VWS V14.01,2013-03-05 20:53:00,
2013-03-05 15:54:00,46.4,16.7,29.86,East,82,5.0,10.0,30,0.00,,---,0.00,VWS V14.01,2013-03-05 20:54:00,
2013-03-05 15:55:00,46.4,16.7,29.86,ENE,76,4.0,10.0,30,0.00,,---,0.00,VWS V14.01,2013-03-05 20:55:00,
2013-03-05 15:58:00,46.2,17.2,29.86,ENE,66,5.0,6.0,31,0.00,,---,0.00,VWS V14.01,2013-03-05 20:58:00,
2013-03-05 15:59:00,46.2,18.0,29.86,ENE,69,5.0,7.0,32,0.00,,---,0.00,VWS V14.01,2013-03-05 20:59:00,
2013-03-05 16:00:00,46.2,18.0,29.86,ENE,74,5.0,8.0,32,0.00,,---,0.00,VWS V14.01,2013-03-05 21:00:00,
2013-03-05 16:03:00,46.1,17.2,29.86,East,86,0.0,2.0,31,0.00,,---,0.00,VWS V14.01,2013-03-05 21:03:00,
2013-03-05 16:04:00,46.1,17.2,29.86,NE,55,3.0,6.0,31,0.00,,---,0.00,VWS V14.01,2013-03-05 21:04:00,
2013-03-05 16:05:00,46.1,17.2,29.86,ENE,57,5.0,6.0,31,0.00,,---,0.00,VWS V14.01,2013-03-05 21:05:00,
2013-03-05 16:08:00,46.1,17.2,29.86,ESE,102,2.0,4.0,31,0.00,,---,0.00,VWS V14.01,2013-03-05 21:08:00,
2013-03-05 16:09:00,46.1,17.2,29.86,East,92,4.0,5.0,31,0.00,,---,0.00,VWS V14.01,2013-03-05 21:09:00,
2013-03-05 16:10:00,46.1,17.2,29.86,ESE,106,6.0,6.0,31,0.00,,---,0.00,VWS V14.01,2013-03-05 21:10:00,
2013-03-05 16:13:00,46.2,16.5,29.86,East,86,3.0,8.0,30,0.00,,---,0.00,VWS V14.01,2013-03-05 21:13:00,
2013-03-05 16:15:00,46.2,16.5,29.86,East,87,2.0,9.0,30,0.00,,---,0.00,VWS V14.01,2013-03-05 21:15:00,
2013-03-05 16:19:00,46.1,17.2,29.86,ENE,75,5.0,5.0,31,0.00,,---,0.00,VWS V14.01,2013-03-05 21:19:00,
2013-03-05 16:20:00,46.1,16.4,29.86,East,80,6.0,6.0,30,0.00,,---,0.00,VWS V14.01,2013-03-05 21:20:00,
2013-03-05 16:24:00,46.1,16.4,29.86,ENE,57,8.0,8.0,30,0.00,,---,0.00,VWS V14.01,2013-03-05 21:24:00,
2013-03-05 16:25:00,46.1,16.4,29.86,ENE,57,9.0,9.0,30,0.00,,---,0.00,VWS V14.01,2013-03-05 21:25:00,
2013-03-05 16:29:00,46.0,16.3,29.86,NE,42,6.0,10.0,30,0.00,,---,0.00,VWS V14.01,2013-03-05 21:29:00,
2013-03-05 16:30:00,46.0,16.3,29.86,ENE,57,5.0,5.0,30,0.00,,---,0.00,VWS V14.01,2013-03-05 21:30:00,
2013-03-05 16:34:00,45.8,16.1,29.85,East,79,6.0,6.0,30,0.00,,---,0.00,VWS V14.01,2013-03-05 21:34:00,
2013-03-05 16:35:00,45.8,16.1,29.85,East,79,3.0,8.0,30,0.00,,---,0.00,VWS V14.01,2013-03-05 21:35:00,
2013-03-05 16:39:00,45.7,16.1,29.85,ENE,66,2.0,6.0,30,0.00,,---,0.00,VWS V14.01,2013-03-05 21:39:00,
2013-03-05 16:40:00,45.7,16.1,29.85,ENE,66,5.0,5.0,30,0.00,,---,0.00,VWS V14.01,2013-03-05 21:40:00,
2013-03-05 16:44:00,45.5,15.1,29.85,NE,37,6.0,9.0,29,0.00,,---,0.00,VWS V14.01,2013-03-05 21:44:00,
2013-03-05 16:45:00,45.5,15.1,29.85,ENE,59,5.0,6.0,29,0.00,,---,0.00,VWS V14.01,2013-03-05 21:45:00,
2013-03-05 16:49:00,45.4,15.0,29.85,ENE,59,0.0,5.0,29,0.00,,---,0.00,VWS V14.01,2013-03-05 21:49:00,
2013-03-05 16:50:00,45.4,15.0,29.85,East,82,7.0,7.0,29,0.00,,---,0.00,VWS V14.01,2013-03-05 21:50:00,
2013-03-05 16:54:00,45.2,15.6,29.85,East,92,4.0,5.0,30,0.00,,---,0.00,VWS V14.01,2013-03-05 21:54:00,
2013-03-05 16:55:00,45.2,15.6,29.85,East,98,6.0,9.0,30,0.00,,---,0.00,VWS V14.01,2013-03-05 21:55:00,
2013-03-05 16:59:00,45.1,15.5,29.85,East,88,4.0,6.0,30,0.00,,---,0.00,VWS V14.01,2013-03-05 21:59:00,
2013-03-05 17:00:00,45.1,15.5,29.85,East,79,3.0,7.0,30,0.00,,---,0.00,VWS V14.01,2013-03-05 22:00:00,
2013-03-05 17:04:00,44.9,14.6,29.85,ENE,69,7.0,8.0,29,0.00,,---,0.00,VWS V14.01,2013-03-05 22:04:00,
2013-03-05 17:05:00,44.9,15.4,29.85,East,85,5.0,6.0,30,0.00,,---,0.00,VWS V14.01,2013-03-05 22:05:00,
2013-03-05 17:06:00,44.9,15.4,29.85,East,80,9.0,10.0,30,0.00,,---,0.00,VWS V14.01,2013-03-05 22:06:00,
2013-03-05 17:10:00,44.8,14.5,29.85,ENE,78,5.0,11.0,29,0.00,,---,0.00,VWS V14.01,2013-03-05 22:10:00,
2013-03-05 17:11:00,44.8,14.5,29.85,ENE,76,3.0,3.0,29,0.00,,---,0.00,VWS V14.01,2013-03-05 22:11:00,
2013-03-05 17:15:00,44.6,14.3,29.85,ENE,65,5.0,9.0,29,0.00,,---,0.00,VWS V14.01,2013-03-05 22:15:00,
2013-03-05 17:16:00,44.6,14.3,29.85,ENE,65,3.0,3.0,29,0.00,,---,0.00,VWS V14.01,2013-03-05 22:16:00,
2013-03-05 17:20:00,44.6,15.1,29.85,ENE,60,4.0,5.0,30,0.00,,---,0.00,VWS V14.01,2013-03-05 22:20:00,
2013-03-05 17:21:00,44.5,14.2,29.85,East,86,5.0,6.0,29,0.00,,---,0.00,VWS V14.01,2013-03-05 22:21:00,
2013-03-05 17:25:00,44.5,14.2,29.85,ENE,76,4.0,7.0,29,0.00,,---,0.00,VWS V14.01,2013-03-05 22:25:00,
2013-03-05 17:26:00,44.5,14.2,29.85,ENE,73,2.0,3.0,29,0.00,,---,0.00,VWS V14.01,2013-03-05 22:26:00,
2013-03-05 17:30:00,44.3,14.8,29.85,East,93,3.0,4.0,30,0.00,,---,0.00,VWS V14.01,2013-03-05 22:30:00,
2013-03-05 17:31:00,44.3,14.1,29.85,ENE,75,7.0,7.0,29,0.00,,---,0.00,VWS V14.01,2013-03-05 22:31:00,
2013-03-05 17:35:00,44.2,14.8,29.85,East,91,1.0,2.0,30,0.00,,---,0.00,VWS V14.01,2013-03-05 22:35:00,
2013-03-05 17:36:00,44.2,14.8,29.85,East,88,3.0,3.0,30,0.00,,---,0.00,VWS V14.01,2013-03-05 22:36:00,
2013-03-05 17:40:00,44.1,15.4,29.85,East,90,9.0,10.0,31,0.00,,---,0.00,VWS V14.01,2013-03-05 22:40:00,
2013-03-05 17:41:00,44.1,14.7,29.85,East,82,3.0,6.0,30,0.00,,---,0.00,VWS V14.01,2013-03-05 22:41:00,
2013-03-05 17:45:00,43.9,15.2,29.85,East,80,4.0,5.0,31,0.00,,---,0.00,VWS V14.01,2013-03-05 22:45:00,
2013-03-05 17:46:00,43.9,15.2,29.85,ENE,63,4.0,5.0,31,0.00,,---,0.00,VWS V14.01,2013-03-05 22:46:00,
2013-03-05 17:50:00,43.8,15.9,29.85,East,86,3.0,4.0,32,0.00,,---,0.00,VWS V14.01,2013-03-05 22:50:00,
2013-03-05 17:51:00,43.8,15.1,29.85,East,86,2.0,2.0,31,0.00,,---,0.00,VWS V14.01,2013-03-05 22:51:00,
2013-03-05 17:55:00,43.8,15.9,29.85,ESE,102,6.0,6.0,32,0.00,,---,0.00,VWS V14.01,2013-03-05 22:55:00,
2013-03-05 17:56:00,43.6,15.7,29.85,East,81,3.0,7.0,32,0.00,,---,0.00,VWS V14.01,2013-03-05 22:56:00,
2013-03-05 18:00:00,43.6,15.7,29.85,East,84,4.0,6.0,32,0.00,,---,0.00,VWS V14.01,2013-03-05 23:00:00,
2013-03-05 18:01:00,43.5,15.6,29.85,East,89,4.0,7.0,32,0.00,,---,0.00,VWS V14.01,2013-03-05 23:01:00,
2013-03-05 18:05:00,43.5,15.6,29.84,ESE,120,3.0,3.0,32,0.00,,---,0.00,VWS V14.01,2013-03-05 23:05:00,
2013-03-05 18:06:00,43.5,16.3,29.84,East,88,4.0,5.0,33,0.00,,---,0.00,VWS V14.01,2013-03-05 23:06:00,
2013-03-05 18:10:00,43.3,16.1,29.84,East,101,1.0,2.0,33,0.00,,---,0.00,VWS V14.01,2013-03-05 23:10:00,
2013-03-05 18:11:00,43.3,16.1,29.84,East,101,3.0,4.0,33,0.00,,---,0.00,VWS V14.01,2013-03-05 23:11:00,
2013-03-05 18:15:00,43.3,16.1,29.84,ENE,63,6.0,6.0,33,0.00,,---,0.00,VWS V14.01,2013-03-05 23:15:00,
2013-03-05 18:16:00,43.3,16.8,29.84,ESE,107,5.0,9.0,34,0.00,,---,0.00,VWS V14.01,2013-03-05 23:16:00,
2013-03-05 18:20:00,43.2,16.7,29.84,East,88,2.0,4.0,34,0.00,,---,0.00,VWS V14.01,2013-03-05 23:20:00,
2013-03-05 18:21:00,43.2,16.7,29.84,East,95,7.0,7.0,34,0.00,,---,0.00,VWS V14.01,2013-03-05 23:21:00,
2013-03-05 18:25:00,43.2,16.7,29.84,East,101,3.0,6.0,34,0.00,,---,0.00,VWS V14.01,2013-03-05 23:25:00,
2013-03-05 18:26:00,43.2,16.1,29.84,ENE,78,2.0,10.0,33,0.00,,---,0.00,VWS V14.01,2013-03-05 23:26:00,
2013-03-05 18:30:00,43.2,16.1,29.84,ENE,78,4.0,4.0,33,0.00,,---,0.00,VWS V14.01,2013-03-05 23:30:00,
2013-03-05 18:31:00,43.2,16.1,29.84,East,88,6.0,6.0,33,0.00,,---,0.00,VWS V14.01,2013-03-05 23:31:00,
2013-03-05 18:35:00,43.1,16.0,29.83,ENE,74,6.0,10.0,33,0.00,,---,0.00,VWS V14.01,2013-03-05 23:35:00,
2013-03-05 18:36:00,43.1,16.0,29.83,ENE,78,5.0,7.0,33,0.00,,---,0.00,VWS V14.01,2013-03-05 23:36:00,
2013-03-05 18:40:00,43.1,16.0,29.83,East,99,4.0,7.0,33,0.00,,---,0.00,VWS V14.01,2013-03-05 23:40:00,
2013-03-05 18:41:00,43.1,16.0,29.83,East,94,5.0,9.0,33,0.00,,---,0.00,VWS V14.01,2013-03-05 23:41:00,
2013-03-05 18:45:00,42.9,16.5,29.83,ESE,111,8.0,10.0,34,0.00,,---,0.00,VWS V14.01,2013-03-05 23:45:00,
2013-03-05 18:46:00,42.9,16.5,29.83,ESE,107,4.0,6.0,34,0.00,,---,0.00,VWS V14.01,2013-03-05 23:46:00,
2013-03-05 18:50:00,42.9,16.5,29.83,ENE,72,3.0,6.0,34,0.00,,---,0.00,VWS V14.01,2013-03-05 23:50:00,
2013-03-05 18:51:00,42.9,16.5,29.83,East,87,9.0,9.0,34,0.00,,---,0.00,VWS V14.01,2013-03-05 23:51:00,
2013-03-05 18:55:00,42.8,15.0,29.83,ESE,109,3.0,10.0,32,0.00,,---,0.00,VWS V14.01,2013-03-05 23:55:00,
2013-03-05 18:56:00,42.8,15.0,29.83,East,92,4.0,5.0,32,0.00,,---,0.00,VWS V14.01,2013-03-05 23:56:00,
2013-03-05 19:00:00,42.6,15.5,29.83,East,97,2.0,8.0,33,0.00,,---,0.00,VWS V14.01,2013-03-06 00:00:00,
2013-03-05 19:01:00,42.6,15.5,29.83,East,97,0.0,2.0,33,0.00,,---,0.00,VWS V14.01,2013-03-06 00:01:00,
2013-03-05 19:06:00,42.5,15.4,29.83,East,98,3.0,6.0,33,0.00,,---,0.00,VWS V14.01,2013-03-06 00:06:00,
2013-03-05 19:11:00,42.5,14.7,29.83,East,88,3.0,10.0,32,0.00,,---,0.00,VWS V14.01,2013-03-06 00:11:00,
2013-03-05 19:16:00,42.3,13.8,29.83,East,88,4.0,13.0,31,0.00,,---,0.00,VWS V14.01,2013-03-06 00:16:00,
2013-03-05 19:21:00,42.3,13.8,29.83,East,82,5.0,6.0,31,0.00,,---,0.00,VWS V14.01,2013-03-06 00:21:00,
2013-03-05 19:26:00,42.3,14.6,29.83,SE,135,4.0,7.0,32,0.00,,---,0.00,VWS V14.01,2013-03-06 00:26:00,
2013-03-05 19:27:00,42.3,13.8,29.83,ESE,116,1.0,2.0,31,0.00,,---,0.00,VWS V14.01,2013-03-06 00:27:00,
2013-03-05 19:31:00,42.3,13.8,29.83,East,98,5.0,5.0,31,0.00,,---,0.00,VWS V14.01,2013-03-06 00:31:00,
2013-03-05 19:32:00,42.3,13.8,29.83,East,99,2.0,3.0,31,0.00,,---,0.00,VWS V14.01,2013-03-06 00:32:00,
2013-03-05 19:36:00,42.3,13.8,29.83,East,84,5.0,6.0,31,0.00,,---,0.00,VWS V14.01,2013-03-06 00:36:00,
2013-03-05 19:37:00,42.3,13.8,29.83,East,94,3.0,3.0,31,0.00,,---,0.00,VWS V14.01,2013-03-06 00:37:00,
2013-03-05 19:41:00,42.3,14.6,29.83,ENE,67,2.0,6.0,32,0.00,,---,0.00,VWS V14.01,2013-03-06 00:41:00,
2013-03-05 19:42:00,42.3,14.6,29.83,ENE,69,2.0,3.0,32,0.00,,---,0.00,VWS V14.01,2013-03-06 00:42:00,
2013-03-05 19:46:00,42.3,14.6,29.83,East,87,0.0,2.0,32,0.00,,---,0.00,VWS V14.01,2013-03-06 00:46:00,
2013-03-05 19:47:00,42.3,14.6,29.82,East,87,0.0,1.0,32,0.00,,---,0.00,VWS V14.01,2013-03-06 00:47:00,
2013-03-05 19:51:00,42.2,15.2,29.82,East,88,2.0,2.0,33,0.00,,---,0.00,VWS V14.01,2013-03-06 00:51:00,
2013-03-05 19:52:00,42.2,15.2,29.82,ENE,69,4.0,4.0,33,0.00,,---,0.00,VWS V14.01,2013-03-06 00:52:00,
2013-03-05 19:56:00,42.1,15.1,29.82,ENE,62,4.0,4.0,33,0.00,,---,0.00,VWS V14.01,2013-03-06 00:56:00,
2013-03-05 19:57:00,42.1,15.1,29.82,ENE,75,5.0,6.0,33,0.00,,---,0.00,VWS V14.01,2013-03-06 00:57:00,
2013-03-05 20:01:00,41.9,15.6,29.82,East,90,7.0,7.0,34,0.00,,---,0.00,VWS V14.01,2013-03-06 01:01:00,
2013-03-05 20:02:00,41.9,15.6,29.82,East,95,6.0,7.0,34,0.00,,---,0.00,VWS V14.01,2013-03-06 01:02:00,
2013-03-05 20:06:00,41.8,15.5,29.82,ESE,103,7.0,7.0,34,0.00,,---,0.00,VWS V14.01,2013-03-06 01:06:00,
2013-03-05 20:07:00,41.6,16.0,29.82,ENE,78,4.0,4.0,35,0.00,,---,0.00,VWS V14.01,2013-03-06 01:07:00,
2013-03-05 20:11:00,41.6,16.0,29.82,East,84,6.0,6.0,35,0.00,,---,0.00,VWS V14.01,2013-03-06 01:11:00,
2013-03-05 20:12:00,41.6,16.6,29.82,East,84,3.0,4.0,36,0.00,,---,0.00,VWS V14.01,2013-03-06 01:12:00,
2013-03-05 20:16:00,41.5,16.5,29.82,East,94,2.0,7.0,36,0.00,,---,0.00,VWS V14.01,2013-03-06 01:16:00,
2013-03-05 20:17:00,41.5,16.5,29.80,East,79,3.0,3.0,36,0.00,,---,0.00,VWS V14.01,2013-03-06 01:17:00,
2013-03-05 20:21:00,41.3,17.0,29.80,ENE,73,3.0,9.0,37,0.00,,---,0.00,VWS V14.01,2013-03-06 01:21:00,
2013-03-05 20:22:00,41.3,17.0,29.80,East,99,4.0,5.0,37,0.00,,---,0.00,VWS V14.01,2013-03-06 01:22:00,
2013-03-05 20:26:00,41.2,16.9,29.80,East,92,5.0,7.0,37,0.00,,---,0.00,VWS V14.01,2013-03-06 01:26:00,
2013-03-05 20:27:00,41.2,16.9,29.80,East,82,5.0,5.0,37,0.00,,---,0.00,VWS V14.01,2013-03-06 01:27:00,
2013-03-05 20:31:00,41.1,16.8,29.80,ESE,103,5.0,5.0,37,0.00,,---,0.00,VWS V14.01,2013-03-06 01:31:00,
2013-03-05 20:32:00,41.1,17.4,29.79,East,100,2.0,4.0,38,0.00,,---,0.00,VWS V14.01,2013-03-06 01:32:00,
2013-03-05 20:36:00,41.1,17.4,29.79,ENE,70,1.0,10.0,38,0.00,,---,0.00,VWS V14.01,2013-03-06 01:36:00,
2013-03-05 20:37:00,41.1,17.4,29.79,ESE,121,5.0,6.0,38,0.00,,---,0.00,VWS V14.01,2013-03-06 01:37:00,
2013-03-05 20:38:00,41.1,17.4,29.79,East,82,6.0,8.0,38,0.00,,---,0.00,VWS V14.01,2013-03-06 01:38:00,
2013-03-05 20:41:00,41.1,17.4,29.79,East,80,7.0,10.0,38,0.00,,---,0.00,VWS V14.01,2013-03-06 01:41:00,
2013-03-05 20:42:00,41.1,17.4,29.79,ENE,74,7.0,7.0,38,0.00,,---,0.00,VWS V14.01,2013-03-06 01:42:00,
2013-03-05 20:43:00,41.1,17.4,29.79,East,89,5.0,9.0,38,0.00,,---,0.00,VWS V14.01,2013-03-06 01:43:00,
2013-03-05 20:46:00,41.1,17.4,29.79,East,80,3.0,11.0,38,0.00,,---,0.00,VWS V14.01,2013-03-06 01:46:00,
2013-03-05 20:47:00,41.1,17.4,29.78,ESE,112,2.0,2.0,38,0.00,,---,0.00,VWS V14.01,2013-03-06 01:47:00,
2013-03-05 20:48:00,41.1,18.0,29.78,ESE,109,6.0,6.0,39,0.00,,---,0.00,VWS V14.01,2013-03-06 01:48:00,
2013-03-05 20:51:00,41.1,17.4,29.78,SE,136,7.0,7.0,38,0.00,,---,0.00,VWS V14.01,2013-03-06 01:51:00,
2013-03-05 20:52:00,41.1,17.4,29.78,ESE,114,0.0,7.0,38,0.00,,---,0.00,VWS V14.01,2013-03-06 01:52:00,
2013-03-05 20:53:00,41.1,17.4,29.78,ESE,119,6.0,10.0,38,0.00,,---,0.00,VWS V14.01,2013-03-06 01:53:00,
2013-03-05 20:57:00,41.2,17.5,29.78,ESE,119,3.0,10.0,38,0.00,,---,0.00,VWS V14.01,2013-03-06 01:57:00,
2013-03-05 20:58:00,41.2,17.5,29.78,ESE,115,0.0,9.0,38,0.00,,---,0.00,VWS V14.01,2013-03-06 01:58:00,
2013-03-05 21:02:00,41.3,17.6,29.78,East,101,5.0,7.0,38,0.00,,---,0.00,VWS V14.01,2013-03-06 02:02:00,
2013-03-05 21:03:00,41.3,17.6,29.77,East,97,4.0,6.0,38,0.00,,---,0.00,VWS V14.01,2013-03-06 02:03:00,
2013-03-05 21:07:00,41.5,17.8,29.77,ENE,71,6.0,9.0,38,0.00,,---,0.00,VWS V14.01,2013-03-06 02:07:00,
2013-03-05 21:08:00,41.5,18.4,29.77,East,92,6.0,8.0,39,0.00,,---,0.00,VWS V14.01,2013-03-06 02:08:00,
2013-03-05 21:12:00,41.3,18.8,29.77,ESE,106,4.0,10.0,40,0.00,,---,0.00,VWS V14.01,2013-03-06 02:12:00,
2013-03-05 21:13:00,41.3,19.4,29.77,East,80,4.0,12.0,41,0.00,,---,0.00,VWS V14.01,2013-03-06 02:13:00,
2013-03-05 21:17:00,41.3,19.4,29.77,East,93,9.0,13.0,41,0.00,,---,0.00,VWS V14.01,2013-03-06 02:17:00,
2013-03-05 21:18:00,41.3,19.4,29.77,ESE,103,8.0,11.0,41,0.00,,---,0.00,VWS V14.01,2013-03-06 02:18:00,
2013-03-05 21:22:00,41.3,19.4,29.77,East,84,9.0,10.0,41,0.00,,---,0.00,VWS V14.01,2013-03-06 02:22:00,
2013-03-05 21:23:00,41.3,18.8,29.77,SE,128,6.0,7.0,40,0.00,,---,0.00,VWS V14.01,2013-03-06 02:23:00,
2013-03-05 21:27:00,41.2,18.7,29.77,SE,128,2.0,2.0,40,0.00,,---,0.00,VWS V14.01,2013-03-06 02:27:00,
2013-03-05 21:28:00,41.2,18.7,29.77,SE,131,4.0,4.0,40,0.00,,---,0.00,VWS V14.01,2013-03-06 02:28:00,
2013-03-05 21:32:00,41.2,20.4,29.78,East,101,7.0,10.0,43,0.00,,---,0.00,VWS V14.01,2013-03-06 02:32:00,
2013-03-05 21:33:00,41.2,20.4,29.78,East,96,6.0,11.0,43,0.00,,---,0.00,VWS V14.01,2013-03-06 02:33:00,
2013-03-05 21:37:00,41.1,21.4,29.78,ENE,75,5.0,5.0,45,0.00,,---,0.00,VWS V14.01,2013-03-06 02:37:00,
2013-03-05 21:38:00,41.1,21.4,29.78,East,101,11.0,12.0,45,0.00,,---,0.00,VWS V14.01,2013-03-06 02:38:00,
2013-03-05 21:42:00,40.8,22.6,29.78,ENE,67,10.0,10.0,48,0.00,,---,0.00,VWS V14.01,2013-03-06 02:42:00,
2013-03-05 21:43:00,40.8,22.6,29.78,SE,131,8.0,12.0,48,0.00,,---,0.00,VWS V14.01,2013-03-06 02:43:00,
2013-03-05 21:47:00,40.5,22.4,29.79,East,101,11.0,11.0,48,0.00,,---,0.00,VWS V14.01,2013-03-06 02:47:00,
2013-03-05 21:48:00,40.5,22.9,29.79,SE,132,6.0,6.0,49,0.00,,---,0.00,VWS V14.01,2013-03-06 02:48:00,
2013-03-05 21:52:00,40.2,23.1,29.79,SE,143,1.0,1.0,50,0.00,,---,0.00,VWS V14.01,2013-03-06 02:52:00,
2013-03-05 21:53:00,40.2,23.1,29.79,SSE,150,0.0,2.0,50,0.00,,---,0.00,VWS V14.01,2013-03-06 02:53:00,
2013-03-05 21:57:00,40.1,24.4,29.79,ESE,119,11.0,11.0,53,0.00,,---,0.00,VWS V14.01,2013-03-06 02:57:00,
2013-03-05 21:58:00,39.9,24.6,29.79,SSE,167,6.0,7.0,54,0.00,,---,0.00,VWS V14.01,2013-03-06 02:58:00,
2013-03-05 22:02:00,39.5,25.5,29.80,South,171,0.0,9.0,57,0.00,,---,0.00,VWS V14.01,2013-03-06 03:02:00,
2013-03-05 22:04:00,39.3,26.2,29.80,South,187,4.0,4.0,59,0.00,,---,0.00,VWS V14.01,2013-03-06 03:04:00,
2013-03-05 22:07:00,38.9,27.0,29.80,South,179,13.0,13.0,62,0.00,,---,0.00,VWS V14.01,2013-03-06 03:07:00,
2013-03-05 22:09:00,38.5,27.8,29.80,South,173,9.0,9.0,65,0.00,,---,0.00,VWS V14.01,2013-03-06 03:09:00,
2013-03-05 22:12:00,38.0,28.8,29.80,South,172,6.0,6.0,69,0.00,,---,0.00,VWS V14.01,2013-03-06 03:12:00,
2013-03-05 22:14:00,37.6,28.7,29.80,SSW,196,11.0,11.0,70,0.00,,---,0.00,VWS V14.01,2013-03-06 03:14:00,
2013-03-05 22:17:00,37.0,29.2,29.78,South,175,5.0,10.0,73,0.00,,---,0.00,VWS V14.01,2013-03-06 03:17:00,
2013-03-05 22:18:00,36.9,29.1,29.78,ESE,113,3.0,7.0,73,0.00,,---,0.00,VWS V14.01,2013-03-06 03:18:00,
2013-03-05 22:19:00,36.6,29.1,29.78,SSE,157,4.0,7.0,74,0.00,,---,0.00,VWS V14.01,2013-03-06 03:19:00,
2013-03-05 22:22:00,36.3,29.1,29.78,SSE,156,2.0,4.0,75,0.00,,---,0.00,VWS V14.01,2013-03-06 03:22:00,
2013-03-05 22:23:00,36.2,29.0,29.78,SSE,156,2.0,4.0,75,0.00,,---,0.00,VWS V14.01,2013-03-06 03:23:00,
2013-03-05 22:24:00,36.0,29.2,29.78,SE,132,3.0,7.0,76,0.00,,---,0.00,VWS V14.01,2013-03-06 03:24:00,
2013-03-05 22:27:00,35.8,29.3,29.78,ESE,111,4.0,4.0,77,0.00,,---,0.00,VWS V14.01,2013-03-06 03:27:00,
2013-03-05 22:28:00,35.6,29.1,29.78,ESE,112,1.0,4.0,77,0.00,,---,0.00,VWS V14.01,2013-03-06 03:28:00,
2013-03-05 22:29:00,35.5,29.3,29.78,East,91,0.0,2.0,78,0.00,,---,0.00,VWS V14.01,2013-03-06 03:29:00,
2013-03-05 22:32:00,35.3,29.5,29.78,East,82,1.0,4.0,79,0.00,,---,0.00,VWS V14.01,2013-03-06 03:32:00,
2013-03-05 22:33:00,35.2,29.4,29.78,East,91,0.0,4.0,79,0.00,,---,0.00,VWS V14.01,2013-03-06 03:33:00,
2013-03-05 22:34:00,35.0,29.5,29.78,ESE,117,2.0,6.0,80,0.00,,---,0.00,VWS V14.01,2013-03-06 03:34:00,
2013-03-05 22:37:00,34.9,29.4,29.78,ESE,117,2.0,2.0,80,0.00,,---,0.00,VWS V14.01,2013-03-06 03:37:00,
2013-03-05 22:38:00,34.9,29.7,29.78,ESE,119,4.0,4.0,81,0.00,,---,0.00,VWS V14.01,2013-03-06 03:38:00,
2013-03-05 22:39:00,34.7,29.5,29.78,SE,144,1.0,6.0,81,0.00,,---,0.00,VWS V14.01,2013-03-06 03:39:00,
2013-03-05 22:42:00,34.6,29.7,29.78,East,96,2.0,6.0,82,0.00,,---,0.00,VWS V14.01,2013-03-06 03:42:00,
2013-03-05 22:43:00,34.6,29.7,29.78,East,96,3.0,6.0,82,0.00,,---,0.00,VWS V14.01,2013-03-06 03:43:00,
2013-03-05 22:45:00,34.4,29.5,29.78,ESE,103,4.0,5.0,82,0.00,,---,0.00,VWS V14.01,2013-03-06 03:45:00,
2013-03-05 22:47:00,34.3,29.7,29.78,East,90,2.0,4.0,83,0.00,,---,0.00,VWS V14.01,2013-03-06 03:47:00,
2013-03-05 22:48:00,34.3,29.7,29.78,East,90,0.0,4.0,83,0.00,,---,0.00,VWS V14.01,2013-03-06 03:48:00,
2013-03-05 22:50:00,34.1,29.5,29.78,East,90,0.0,1.0,83,0.00,,---,0.00,VWS V14.01,2013-03-06 03:50:00,
2013-03-05 22:52:00,34.1,29.8,29.78,East,90,0.0,1.0,84,0.00,,---,0.00,VWS V14.01,2013-03-06 03:52:00,
2013-03-05 22:53:00,34.1,29.8,29.78,East,90,1.0,2.0,84,0.00,,---,0.00,VWS V14.01,2013-03-06 03:53:00,
2013-03-05 22:55:00,34.0,29.7,29.78,East,93,3.0,3.0,84,0.00,,---,0.00,VWS V14.01,2013-03-06 03:55:00,
2013-03-05 22:57:00,33.8,29.8,29.78,East,93,1.0,1.0,85,0.00,,---,0.00,VWS V14.01,2013-03-06 03:57:00,
2013-03-05 22:58:00,33.8,29.8,29.78,ESE,109,3.0,4.0,85,0.00,,---,0.00,VWS V14.01,2013-03-06 03:58:00,
2013-03-05 23:00:00,33.8,29.8,29.78,ESE,109,4.0,4.0,85,0.00,,---,0.00,VWS V14.01,2013-03-06 04:00:00,
2013-03-05 23:02:00,33.7,30.0,29.77,ESE,108,3.0,3.0,86,0.00,,---,0.00,VWS V14.01,2013-03-06 04:02:00,
2013-03-05 23:03:00,33.7,30.0,29.77,ESE,108,2.0,4.0,86,0.00,,---,0.00,VWS V14.01,2013-03-06 04:03:00,
2013-03-05 23:05:00,33.5,29.8,29.77,East,84,1.0,3.0,86,0.00,,---,0.00,VWS V14.01,2013-03-06 04:05:00,
2013-03-05 23:07:00,33.5,29.8,29.77,East,86,0.0,4.0,86,0.00,,---,0.00,VWS V14.01,2013-03-06 04:07:00,
2013-03-05 23:08:00,33.5,29.8,29.77,East,86,1.0,3.0,86,0.00,,---,0.00,VWS V14.01,2013-03-06 04:08:00,
2013-03-05 23:10:00,33.4,30.0,29.77,East,80,0.0,3.0,87,0.00,,---,0.00,VWS V14.01,2013-03-06 04:10:00,
2013-03-05 23:12:00,33.4,30.0,29.77,East,90,2.0,3.0,87,0.00,,---,0.00,VWS V14.01,2013-03-06 04:12:00,
2013-03-05 23:13:00,33.4,30.0,29.77,East,90,2.0,3.0,87,0.00,,---,0.00,VWS V14.01,2013-03-06 04:13:00,
2013-03-05 23:15:00,33.2,29.8,29.77,East,90,2.0,5.0,87,0.00,,---,0.00,VWS V14.01,2013-03-06 04:15:00,
2013-03-05 23:18:00,33.2,29.8,29.76,East,88,2.0,3.0,87,0.00,,---,0.00,VWS V14.01,2013-03-06 04:18:00,
2013-03-05 23:19:00,33.2,30.0,29.76,East,87,6.0,6.0,88,0.00,,---,0.00,VWS V14.01,2013-03-06 04:19:00,
2013-03-05 23:20:00,33.1,29.9,29.76,East,79,1.0,3.0,88,0.00,,---,0.00,VWS V14.01,2013-03-06 04:20:00,
2013-03-05 23:23:00,33.1,29.9,29.76,East,90,3.0,4.0,88,0.00,,---,0.00,VWS V14.01,2013-03-06 04:23:00,
2013-03-05 23:24:00,33.1,29.9,29.76,East,81,3.0,3.0,88,0.00,,---,0.00,VWS V14.01,2013-03-06 04:24:00,
2013-03-05 23:25:00,33.1,29.9,29.76,East,81,1.0,2.0,88,0.00,,---,0.00,VWS V14.01,2013-03-06 04:25:00,
2013-03-05 23:28:00,32.9,30.0,29.76,East,81,3.0,3.0,89,0.00,,---,0.00,VWS V14.01,2013-03-06 04:28:00,
2013-03-05 23:29:00,32.9,30.0,29.76,ENE,78,2.0,2.0,89,0.00,,---,0.00,VWS V14.01,2013-03-06 04:29:00,
2013-03-05 23:30:00,32.9,30.0,29.76,ENE,78,4.0,6.0,89,0.00,,---,0.00,VWS V14.01,2013-03-06 04:30:00,
2013-03-05 23:33:00,32.9,30.0,29.75,East,94,1.0,1.0,89,0.00,,---,0.00,VWS V14.01,2013-03-06 04:33:00,
2013-03-05 23:34:00,32.9,30.0,29.75,ESE,107,6.0,7.0,89,0.00,,---,0.00,VWS V14.01,2013-03-06 04:34:00,
2013-03-05 23:35:00,32.8,29.9,29.75,East,98,1.0,4.0,89,0.00,,---,0.00,VWS V14.01,2013-03-06 04:35:00,
2013-03-05 23:38:00,32.8,29.9,29.75,East,84,4.0,5.0,89,0.00,,---,0.00,VWS V14.01,2013-03-06 04:38:00,
2013-03-05 23:39:00,32.8,29.9,29.75,ENE,78,5.0,7.0,89,0.00,,---,0.00,VWS V14.01,2013-03-06 04:39:00,
2013-03-05 23:41:00,32.8,29.9,29.75,East,95,5.0,10.0,89,0.00,,---,0.00,VWS V14.01,2013-03-06 04:41:00,
2013-03-05 23:43:00,32.7,30.1,29.75,East,81,3.0,6.0,90,0.00,,---,0.00,VWS V14.01,2013-03-06 04:43:00,
2013-03-05 23:44:00,32.7,30.1,29.75,East,89,3.0,6.0,90,0.00,,---,0.00,VWS V14.01,2013-03-06 04:44:00,
2013-03-05 23:46:00,32.7,30.6,29.75,East,97,9.0,10.0,92,0.00,,---,0.00,VWS V14.01,2013-03-06 04:46:00,
2013-03-05 23:48:00,32.7,30.1,29.75,East,92,3.0,6.0,90,0.00,,---,0.00,VWS V14.01,2013-03-06 04:48:00,
2013-03-05 23:49:00,32.7,30.1,29.75,East,98,4.0,6.0,90,0.00,,---,0.00,VWS V14.01,2013-03-06 04:49:00,
2013-03-05 23:51:00,32.5,29.9,29.75,East,86,4.0,4.0,90,0.00,,---,0.00,VWS V14.01,2013-03-06 04:51:00,
2013-03-05 23:53:00,32.5,29.9,29.75,ESE,108,6.0,6.0,90,0.00,,---,0.00,VWS V14.01,2013-03-06 04:53:00,
2013-03-05 23:54:00,32.5,29.9,29.75,ESE,103,4.0,7.0,90,0.00,,---,0.00,VWS V14.01,2013-03-06 04:54:00,
2013-03-05 23:56:00,32.5,30.2,29.75,East,101,11.0,12.0,91,0.00,,---,0.00,VWS V14.01,2013-03-06 04:56:00,
2013-03-05 23:58:00,32.4,30.1,29.75,East,92,3.0,6.0,91,0.00,,---,0.00,VWS V14.01,2013-03-06 04:58:00,
2013-03-05 23:59:00,32.4,30.1,29.75,East,97,3.0,3.0,91,0.00,,---,0.00,VWS V14.01,2013-03-06 04:59:00,